GEFSGL_prec_meanprecacc_042.txt.gz
Total_Precipitation_Accumulation
0.47 0.47 0.45 0.43 0.42 0.42 0.44 0.45 0.47 0.48 0.47 0.44 0.42 0.40 0.39 0.36 0.35 0.36 0.40 0.41 0.39 0.39 0.38 0.42 0.45 0.53 0.52 0.47 0.50 0.58 0.71 0.78 0.68 0.85 0.85 0.59 0.41 0.32 0.27 0.21 0.16 0.13 0.11
0.45 0.45 0.46 0.42 0.39 0.38 0.37 0.37 0.38 0.40 0.38 0.33 0.29 0.27 0.27 0.27 0.26 0.27 0.29 0.28 0.26 0.25 0.25 0.28 0.30 0.33 0.37 0.38 0.35 0.39 0.52 0.65 0.66 0.73 0.92 0.85 0.56 0.40 0.35 0.29 0.20 0.15 0.17
0.45 0.45 0.42 0.42 0.42 0.38 0.32 0.29 0.28 0.29 0.28 0.23 0.20 0.18 0.18 0.20 0.23 0.25 0.23 0.20 0.19 0.18 0.17 0.20 0.20 0.25 0.35 0.43 0.38 0.39 0.45 0.57 0.63 0.65 0.84 0.94 0.71 0.50 0.46 0.40 0.34 0.34 0.22
0.42 0.40 0.38 0.36 0.35 0.37 0.33 0.28 0.25 0.24 0.25 0.23 0.20 0.19 0.18 0.18 0.19 0.18 0.19 0.18 0.16 0.16 0.15 0.15 0.16 0.23 0.32 0.43 0.44 0.46 0.48 0.49 0.58 0.66 0.77 0.86 0.85 0.67 0.64 0.57 0.50 0.48 0.40
0.43 0.40 0.38 0.37 0.33 0.30 0.27 0.23 0.20 0.17 0.15 0.15 0.16 0.16 0.15 0.15 0.13 0.12 0.13 0.14 0.13 0.11 0.11 0.10 0.09 0.12 0.14 0.20 0.29 0.41 0.49 0.54 0.58 0.66 0.73 0.81 0.80 0.72 0.64 0.63 0.61 0.64 0.63
0.33 0.31 0.33 0.33 0.32 0.31 0.24 0.19 0.15 0.12 0.10 0.09 0.10 0.10 0.08 0.08 0.08 0.06 0.07 0.07 0.05 0.04 0.04 0.04 0.03 0.03 0.06 0.10 0.12 0.19 0.28 0.42 0.59 0.73 0.76 0.79 0.83 0.81 0.77 0.72 0.72 0.72 0.75
0.24 0.26 0.27 0.30 0.32 0.30 0.21 0.17 0.12 0.08 0.07 0.07 0.07 0.06 0.04 0.04 0.04 0.04 0.02 0.01 0.01 0.01 0.01 0.01 0.00 0.00 0.02 0.05 0.06 0.06 0.08 0.11 0.21 0.48 0.67 0.69 0.67 0.71 0.78 0.85 0.86 0.90 0.97
0.26 0.29 0.29 0.27 0.29 0.28 0.22 0.17 0.13 0.10 0.09 0.08 0.08 0.06 0.03 0.01 0.01 0.01 0.00 0.00 0.00 0.00 0.00 0.00 0.00 0.00 0.00 0.01 0.04 0.07 0.04 0.02 0.04 0.14 0.21 0.26 0.32 0.42 0.57 0.75 0.90 1.00 1.14
0.29 0.31 0.30 0.26 0.26 0.25 0.23 0.21 0.19 0.18 0.14 0.10 0.10 0.09 0.05 0.01 0.00 0.00 0.00 0.02 0.01 0.00 0.00 0.00 0.00 0.00 0.00 0.00 0.01 0.04 0.03 0.01 0.00 0.01 0.04 0.07 0.11 0.16 0.24 0.40 0.57 0.80 1.11
0.26 0.24 0.21 0.21 0.24 0.26 0.26 0.25 0.23 0.21 0.15 0.10 0.10 0.10 0.07 0.03 0.00 0.00 0.00 0.01 0.02 0.01 0.01 0.00 0.00 0.00 0.00 0.00 0.00 0.01 0.02 0.01 0.01 0.01 0.02 0.02 0.02 0.03 0.06 0.14 0.25 0.44 0.72
0.24 0.22 0.21 0.20 0.22 0.24 0.28 0.26 0.25 0.20 0.16 0.13 0.12 0.11 0.10 0.04 0.01 0.00 0.00 0.01 0.01 0.01 0.01 0.00 0.00 0.00 0.00 0.00 0.00 0.00 0.00 0.00 0.01 0.01 0.02 0.03 0.02 0.02 0.02 0.04 0.08 0.15 0.29
0.24 0.22 0.21 0.22 0.14 0.14 0.23 0.25 0.26 0.23 0.16 0.14 0.12 0.11 0.09 0.06 0.02 0.00 0.00 0.00 0.00 0.01 0.01 0.00 0.00 0.00 0.00 0.00 0.00 0.00 0.00 0.00 0.00 0.01 0.01 0.02 0.02 0.01 0.01 0.01 0.04 0.08 0.14
0.25 0.27 0.27 0.23 0.20 0.19 0.20 0.20 0.19 0.18 0.16 0.12 0.10 0.10 0.09 0.07 0.04 0.01 0.00 0.00 0.00 0.01 0.01 0.00 0.00 0.00 0.00 0.00 0.00 0.00 0.00 0.00 0.00 0.00 0.01 0.01 0.01 0.01 0.01 0.02 0.03 0.05 0.07
0.26 0.29 0.32 0.33 0.29 0.26 0.26 0.24 0.17 0.15 0.14 0.12 0.10 0.08 0.07 0.06 0.04 0.04 0.03 0.02 0.01 0.01 0.01 0.01 0.00 0.00 0.00 0.00 0.00 0.00 0.00 0.00 0.00 0.01 0.02 0.02 0.02 0.02 0.02 0.02 0.02 0.04 0.05
0.22 0.24 0.28 0.33 0.35 0.33 0.30 0.27 0.23 0.22 0.16 0.15 0.13 0.09 0.07 0.05 0.02 0.02 0.02 0.02 0.02 0.01 0.01 0.01 0.01 0.01 0.01 0.01 0.00 0.00 0.00 0.00 0.00 0.01 0.01 0.02 0.02 0.03 0.04 0.04 0.04 0.04 0.05
0.20 0.23 0.25 0.25 0.26 0.24 0.25 0.14 0.08 0.09 0.04 0.03 0.04 0.04 0.03 0.01 0.01 0.01 0.01 0.01 0.01 0.01 0.01 0.03 0.04 0.04 0.03 0.02 0.01 0.01 0.01 0.01 0.01 0.01 0.01 0.01 0.02 0.02 0.04 0.06 0.06 0.06 0.08
0.12 0.15 0.18 0.18 0.18 0.16 0.16 0.12 0.05 0.01 0.00 0.00 0.00 0.00 0.00 0.00 0.00 0.00 0.00 0.01 0.01 0.01 0.01 0.03 0.05 0.05 0.04 0.03 0.03 0.02 0.02 0.02 0.02 0.01 0.02 0.02 0.02 0.02 0.03 0.05 0.05 0.06 0.08
0.05 0.06 0.08 0.10 0.11 0.09 0.08 0.08 0.06 0.02 0.00 0.00 0.00 0.00 0.00 0.00 0.00 0.00 0.00 0.00 0.00 0.00 0.00 0.01 0.03 0.03 0.03 0.03 0.03 0.02 0.02 0.02 0.02 0.02 0.02 0.03 0.03 0.03 0.03 0.04 0.05 0.07 0.09
0.04 0.04 0.03 0.04 0.06 0.04 0.04 0.04 0.03 0.02 0.01 0.01 0.00 0.00 0.00 0.00 0.00 0.00 0.00 0.00 0.00 0.00 0.00 0.00 0.00 0.01 0.01 0.01 0.01 0.01 0.01 0.01 0.02 0.02 0.02 0.03 0.03 0.03 0.05 0.06 0.06 0.06 0.07
0.07 0.03 0.03 0.04 0.02 0.02 0.02 0.01 0.01 0.01 0.01 0.01 0.00 0.00 0.00 0.00 0.00 0.00 0.00 0.00 0.00 0.00 0.00 0.00 0.00 0.00 0.00 0.00 0.00 0.00 0.00 0.01 0.01 0.01 0.01 0.01 0.01 0.02 0.03 0.05 0.06 0.07 0.07
0.10 0.04 0.01 0.01 0.01 0.01 0.01 0.01 0.01 0.00 0.00 0.00 0.00 0.00 0.00 0.00 0.00 0.00 0.00 0.00 0.00 0.00 0.00 0.00 0.00 0.00 0.00 0.00 0.00 0.00 0.00 0.00 0.00 0.00 0.00 0.00 0.00 0.01 0.01 0.02 0.03 0.04 0.05
0.14 0.07 0.02 0.01 0.01 0.01 0.00 0.00 0.00 0.00 0.00 0.00 0.00 0.00 0.00 0.00 0.00 0.00 0.00 0.00 0.00 0.00 0.00 0.00 0.00 0.00 0.00 0.00 0.00 0.00 0.00 0.00 0.00 0.00 0.00 0.00 0.00 0.00 0.01 0.01 0.03 0.04 0.04
0.16 0.10 0.06 0.02 0.00 0.00 0.00 0.00 0.00 0.00 0.00 0.00 0.00 0.00 0.00 0.00 0.00 0.00 0.00 0.00 0.00 0.00 0.00 0.00 0.00 0.00 0.00 0.00 0.00 0.00 0.00 0.00 0.00 0.00 0.00 0.00 0.00 0.00 0.01 0.02 0.03 0.04 0.05
0.15 0.11 0.08 0.04 0.01 0.00 0.00 0.00 0.00 0.00 0.00 0.00 0.00 0.00 0.00 0.00 0.00 0.00 0.00 0.00 0.00 0.00 0.00 0.00 0.00 0.00 0.00 0.01 0.01 0.01 0.01 0.01 0.00 0.00 0.00 0.00 0.00 0.01 0.01 0.02 0.03 0.04 0.07
0.16 0.12 0.08 0.05 0.03 0.01 0.00 0.00 0.00 0.00 0.00 0.00 0.00 0.00 0.00 0.00 0.00 0.00 0.00 0.00 0.00 0.00 0.00 0.00 0.01 0.01 0.01 0.01 0.03 0.04 0.01 0.00 0.00 0.00 0.00 0.00 0.00 0.01 0.02 0.03 0.04 0.05 0.07
0.17 0.13 0.09 0.05 0.03 0.02 0.01 0.00 0.00 0.00 0.00 0.00 0.00 0.00 0.00 0.00 0.00 0.00 0.00 0.01 0.01 0.01 0.02 0.02 0.02 0.02 0.02 0.03 0.04 0.02 0.00 0.00 0.00 0.00 0.00 0.00 0.00 0.01 0.02 0.02 0.02 0.02 0.03

GEFSGL_prec_meanprecacc_048.txt.gz
Total_Precipitation_Accumulation
0.47 0.47 0.45 0.43 0.42 0.42 0.44 0.45 0.49 0.51 0.52 0.54 0.56 0.58 0.60 0.63 0.65 0.66 0.71 0.76 0.75 0.74 0.73 0.75 0.78 0.80 0.75 0.65 0.62 0.66 0.75 0.80 0.70 0.86 0.86 0.60 0.41 0.32 0.27 0.21 0.16 0.13 0.11
0.45 0.45 0.46 0.42 0.39 0.38 0.38 0.37 0.39 0.42 0.44 0.45 0.47 0.48 0.52 0.57 0.61 0.66 0.72 0.74 0.70 0.65 0.60 0.60 0.59 0.56 0.56 0.52 0.44 0.44 0.55 0.66 0.67 0.73 0.92 0.85 0.56 0.40 0.35 0.29 0.21 0.16 0.18
0.45 0.45 0.42 0.42 0.42 0.38 0.32 0.29 0.29 0.31 0.36 0.35 0.33 0.35 0.39 0.46 0.52 0.57 0.57 0.57 0.59 0.60 0.54 0.48 0.42 0.40 0.48 0.51 0.43 0.41 0.46 0.57 0.63 0.65 0.84 0.94 0.71 0.50 0.46 0.40 0.34 0.35 0.22
0.42 0.40 0.38 0.36 0.36 0.37 0.34 0.29 0.26 0.25 0.27 0.29 0.30 0.33 0.36 0.40 0.44 0.44 0.41 0.39 0.39 0.41 0.40 0.37 0.34 0.34 0.39 0.47 0.46 0.47 0.49 0.49 0.59 0.66 0.77 0.87 0.85 0.67 0.64 0.57 0.50 0.48 0.41
0.43 0.40 0.38 0.37 0.34 0.31 0.28 0.24 0.21 0.18 0.17 0.18 0.21 0.26 0.29 0.30 0.30 0.29 0.28 0.24 0.23 0.21 0.22 0.22 0.20 0.20 0.19 0.22 0.30 0.41 0.49 0.54 0.58 0.66 0.73 0.81 0.80 0.72 0.64 0.63 0.61 0.64 0.63
0.33 0.32 0.34 0.34 0.33 0.32 0.25 0.20 0.16 0.13 0.12 0.13 0.14 0.15 0.17 0.18 0.20 0.20 0.18 0.15 0.10 0.08 0.07 0.07 0.05 0.05 0.07 0.11 0.13 0.19 0.28 0.42 0.59 0.73 0.76 0.79 0.83 0.81 0.77 0.72 0.72 0.72 0.75
0.25 0.27 0.29 0.32 0.33 0.31 0.21 0.17 0.13 0.10 0.09 0.10 0.11 0.10 0.09 0.10 0.11 0.14 0.15 0.10 0.04 0.02 0.01 0.01 0.01 0.00 0.02 0.05 0.06 0.06 0.08 0.11 0.21 0.48 0.67 0.69 0.67 0.71 0.78 0.85 0.86 0.90 0.97
0.27 0.30 0.31 0.29 0.31 0.29 0.22 0.17 0.14 0.11 0.10 0.10 0.10 0.08 0.05 0.04 0.05 0.05 0.06 0.05 0.02 0.01 0.00 0.00 0.00 0.00 0.00 0.01 0.04 0.07 0.04 0.02 0.04 0.14 0.21 0.26 0.32 0.42 0.57 0.75 0.90 1.00 1.14
0.31 0.33 0.32 0.29 0.28 0.27 0.25 0.22 0.20 0.18 0.14 0.10 0.11 0.10 0.06 0.02 0.02 0.02 0.02 0.03 0.02 0.00 0.00 0.00 0.00 0.00 0.00 0.00 0.01 0.04 0.03 0.01 0.00 0.01 0.04 0.07 0.11 0.16 0.24 0.40 0.57 0.80 1.11
0.28 0.27 0.23 0.24 0.27 0.28 0.28 0.26 0.24 0.22 0.16 0.11 0.11 0.11 0.07 0.03 0.01 0.01 0.01 0.02 0.02 0.01 0.01 0.00 0.00 0.00 0.00 0.00 0.00 0.01 0.02 0.01 0.01 0.01 0.02 0.02 0.02 0.03 0.06 0.14 0.26 0.44 0.72
0.27 0.26 0.24 0.23 0.25 0.27 0.30 0.28 0.27 0.22 0.17 0.14 0.12 0.11 0.10 0.04 0.01 0.00 0.00 0.01 0.01 0.01 0.01 0.00 0.00 0.00 0.00 0.00 0.00 0.00 0.00 0.00 0.01 0.01 0.02 0.03 0.02 0.02 0.02 0.04 0.08 0.16 0.29
0.29 0.27 0.26 0.26 0.17 0.17 0.26 0.28 0.28 0.24 0.17 0.14 0.13 0.11 0.09 0.06 0.02 0.00 0.00 0.00 0.00 0.01 0.01 0.00 0.00 0.00 0.00 0.00 0.00 0.00 0.00 0.00 0.00 0.01 0.01 0.02 0.02 0.01 0.01 0.01 0.04 0.08 0.14
0.37 0.37 0.34 0.29 0.24 0.23 0.24 0.24 0.22 0.19 0.17 0.13 0.11 0.10 0.09 0.07 0.04 0.01 0.00 0.00 0.00 0.01 0.01 0.00 0.00 0.00 0.00 0.00 0.00 0.00 0.00 0.00 0.00 0.00 0.01 0.01 0.01 0.01 0.01 0.02 0.03 0.05 0.07
0.41 0.41 0.42 0.40 0.35 0.32 0.31 0.27 0.20 0.17 0.16 0.13 0.10 0.08 0.07 0.06 0.04 0.04 0.03 0.02 0.01 0.01 0.01 0.01 0.00 0.00 0.00 0.00 0.00 0.00 0.00 0.00 0.00 0.01 0.02 0.02 0.02 0.02 0.02 0.02 0.02 0.04 0.05
0.44 0.40 0.41 0.43 0.42 0.39 0.35 0.31 0.26 0.24 0.17 0.15 0.14 0.10 0.07 0.05 0.02 0.02 0.02 0.02 0.02 0.01 0.01 0.01 0.01 0.01 0.01 0.01 0.00 0.00 0.00 0.00 0.00 0.01 0.01 0.02 0.02 0.03 0.04 0.04 0.04 0.04 0.05
0.47 0.44 0.41 0.37 0.35 0.31 0.30 0.18 0.11 0.11 0.06 0.04 0.05 0.04 0.03 0.01 0.01 0.01 0.01 0.01 0.01 0.01 0.01 0.03 0.04 0.04 0.03 0.02 0.01 0.01 0.01 0.01 0.01 0.01 0.01 0.01 0.02 0.02 0.04 0.06 0.06 0.06 0.08
0.44 0.43 0.40 0.36 0.32 0.26 0.22 0.16 0.07 0.03 0.02 0.01 0.01 0.00 0.00 0.00 0.00 0.00 0.00 0.01 0.01 0.01 0.01 0.03 0.05 0.05 0.04 0.03 0.03 0.02 0.02 0.02 0.02 0.01 0.02 0.02 0.02 0.02 0.03 0.05 0.05 0.06 0.08
0.38 0.37 0.35 0.32 0.28 0.21 0.16 0.12 0.08 0.04 0.02 0.01 0.00 0.00 0.00 0.00 0.00 0.00 0.00 0.00 0.00 0.00 0.00 0.01 0.03 0.03 0.03 0.03 0.03 0.02 0.02 0.02 0.02 0.02 0.02 0.03 0.03 0.03 0.03 0.04 0.05 0.07 0.09
0.37 0.37 0.34 0.29 0.23 0.18 0.14 0.10 0.07 0.04 0.02 0.01 0.00 0.00 0.00 0.00 0.00 0.00 0.00 0.00 0.00 0.00 0.00 0.00 0.00 0.01 0.01 0.01 0.01 0.01 0.01 0.01 0.02 0.02 0.02 0.03 0.03 0.03 0.05 0.06 0.06 0.06 0.07
0.41 0.37 0.36 0.31 0.23 0.17 0.13 0.10 0.06 0.04 0.02 0.01 0.01 0.00 0.00 0.00 0.00 0.00 0.00 0.00 0.00 0.00 0.00 0.00 0.00 0.00 0.00 0.00 0.00 0.00 0.00 0.01 0.01 0.01 0.01 0.01 0.01 0.02 0.03 0.05 0.06 0.07 0.07
0.44 0.38 0.33 0.28 0.23 0.17 0.13 0.09 0.06 0.04 0.03 0.01 0.01 0.00 0.00 0.00 0.00 0.00 0.00 0.00 0.00 0.00 0.00 0.00 0.00 0.00 0.00 0.00 0.00 0.00 0.00 0.00 0.00 0.00 0.00 0.00 0.00 0.01 0.01 0.02 0.03 0.04 0.05
0.47 0.42 0.34 0.26 0.22 0.18 0.13 0.09 0.07 0.05 0.03 0.02 0.01 0.00 0.00 0.00 0.00 0.00 0.00 0.00 0.00 0.00 0.00 0.00 0.00 0.00 0.00 0.00 0.00 0.00 0.00 0.00 0.00 0.00 0.00 0.00 0.00 0.00 0.01 0.01 0.03 0.04 0.04
0.47 0.45 0.39 0.28 0.19 0.15 0.12 0.09 0.07 0.05 0.03 0.02 0.01 0.01 0.00 0.00 0.00 0.00 0.00 0.00 0.00 0.00 0.00 0.00 0.00 0.00 0.00 0.00 0.00 0.00 0.00 0.00 0.00 0.00 0.00 0.00 0.00 0.00 0.01 0.02 0.03 0.04 0.05
0.42 0.42 0.40 0.32 0.21 0.14 0.10 0.07 0.06 0.05 0.03 0.02 0.01 0.01 0.00 0.00 0.00 0.00 0.00 0.00 0.00 0.00 0.00 0.00 0.00 0.00 0.00 0.01 0.01 0.01 0.01 0.01 0.00 0.00 0.01 0.00 0.00 0.01 0.01 0.02 0.03 0.04 0.07
0.39 0.38 0.37 0.33 0.24 0.15 0.09 0.06 0.05 0.04 0.02 0.02 0.01 0.00 0.00 0.00 0.00 0.00 0.00 0.00 0.00 0.00 0.00 0.00 0.01 0.01 0.01 0.01 0.03 0.04 0.01 0.00 0.00 0.00 0.00 0.00 0.00 0.01 0.02 0.03 0.04 0.05 0.07
0.38 0.35 0.33 0.30 0.23 0.15 0.09 0.06 0.04 0.03 0.02 0.01 0.01 0.00 0.00 0.00 0.00 0.00 0.00 0.01 0.01 0.01 0.02 0.02 0.02 0.02 0.02 0.04 0.05 0.03 0.01 0.01 0.00 0.00 0.00 0.00 0.00 0.01 0.02 0.02 0.02 0.02 0.03

GEFSGL_prec_meanprecacc_054.txt.gz
Total_Precipitation_Accumulation
0.48 0.47 0.45 0.43 0.42 0.42 0.44 0.45 0.49 0.51 0.52 0.54 0.56 0.58 0.61 0.64 0.67 0.69 0.74 0.81 0.84 0.87 0.88 0.94 0.97 1.01 0.94 0.82 0.79 0.83 0.91 0.94 0.83 0.96 0.94 0.68 0.49 0.36 0.30 0.23 0.17 0.14 0.12
0.46 0.46 0.46 0.43 0.39 0.38 0.38 0.37 0.39 0.42 0.44 0.45 0.47 0.48 0.53 0.58 0.63 0.70 0.77 0.82 0.83 0.82 0.82 0.87 0.86 0.82 0.81 0.75 0.65 0.62 0.72 0.81 0.80 0.85 1.00 0.90 0.60 0.42 0.36 0.30 0.21 0.16 0.18
0.46 0.45 0.42 0.42 0.42 0.38 0.32 0.29 0.29 0.31 0.36 0.35 0.33 0.35 0.40 0.49 0.58 0.64 0.67 0.70 0.78 0.84 0.80 0.77 0.73 0.69 0.76 0.80 0.70 0.65 0.66 0.74 0.77 0.77 0.91 0.97 0.73 0.51 0.46 0.41 0.34 0.35 0.22
0.42 0.41 0.38 0.36 0.36 0.37 0.34 0.29 0.26 0.25 0.27 0.29 0.30 0.34 0.37 0.43 0.50 0.53 0.52 0.51 0.54 0.61 0.61 0.59 0.56 0.54 0.60 0.71 0.68 0.68 0.66 0.62 0.69 0.74 0.82 0.89 0.86 0.68 0.64 0.57 0.50 0.48 0.41
0.44 0.40 0.39 0.38 0.34 0.31 0.28 0.24 0.21 0.18 0.17 0.18 0.21 0.27 0.32 0.35 0.35 0.35 0.37 0.33 0.33 0.31 0.32 0.35 0.35 0.34 0.32 0.36 0.45 0.56 0.61 0.61 0.64 0.70 0.76 0.82 0.81 0.73 0.64 0.63 0.61 0.64 0.63
0.34 0.32 0.35 0.35 0.33 0.32 0.26 0.20 0.16 0.13 0.12 0.13 0.14 0.16 0.18 0.21 0.25 0.25 0.24 0.22 0.16 0.14 0.14 0.14 0.14 0.15 0.17 0.22 0.24 0.29 0.36 0.48 0.63 0.75 0.77 0.80 0.83 0.81 0.77 0.72 0.72 0.72 0.75
0.26 0.28 0.30 0.33 0.35 0.32 0.23 0.18 0.14 0.10 0.09 0.10 0.12 0.11 0.11 0.13 0.15 0.17 0.20 0.16 0.10 0.09 0.08 0.07 0.05 0.04 0.05 0.09 0.12 0.12 0.15 0.17 0.25 0.50 0.68 0.69 0.67 0.71 0.78 0.85 0.86 0.90 0.97
0.29 0.33 0.33 0.32 0.34 0.33 0.25 0.20 0.15 0.12 0.10 0.10 0.11 0.10 0.07 0.06 0.08 0.10 0.11 0.10 0.10 0.09 0.06 0.05 0.03 0.02 0.01 0.02 0.05 0.09 0.06 0.04 0.05 0.14 0.22 0.26 0.32 0.42 0.57 0.75 0.90 1.00 1.14
0.33 0.36 0.36 0.34 0.33 0.32 0.29 0.26 0.23 0.20 0.15 0.10 0.12 0.12 0.09 0.05 0.05 0.06 0.07 0.07 0.08 0.08 0.04 0.03 0.02 0.01 0.01 0.00 0.02 0.05 0.04 0.02 0.01 0.01 0.04 0.07 0.11 0.16 0.24 0.40 0.57 0.80 1.11
0.31 0.31 0.29 0.30 0.33 0.34 0.34 0.32 0.29 0.25 0.17 0.11 0.11 0.11 0.10 0.06 0.03 0.03 0.02 0.04 0.06 0.06 0.03 0.02 0.01 0.01 0.00 0.00 0.01 0.02 0.02 0.01 0.01 0.01 0.02 0.02 0.02 0.03 0.06 0.14 0.26 0.44 0.72
0.30 0.29 0.29 0.29 0.32 0.35 0.39 0.37 0.34 0.27 0.20 0.15 0.13 0.11 0.10 0.05 0.01 0.01 0.01 0.03 0.03 0.03 0.02 0.02 0.01 0.00 0.00 0.00 0.00 0.00 0.00 0.00 0.01 0.01 0.02 0.03 0.02 0.02 0.02 0.04 0.08 0.16 0.29
0.31 0.31 0.30 0.33 0.27 0.27 0.37 0.40 0.39 0.33 0.22 0.16 0.14 0.11 0.09 0.06 0.02 0.00 0.01 0.01 0.01 0.02 0.01 0.01 0.01 0.00 0.00 0.00 0.00 0.00 0.00 0.00 0.00 0.01 0.01 0.02 0.02 0.01 0.01 0.01 0.04 0.08 0.14
0.38 0.40 0.40 0.38 0.36 0.36 0.39 0.40 0.39 0.33 0.24 0.16 0.12 0.11 0.09 0.07 0.04 0.01 0.00 0.00 0.00 0.01 0.01 0.00 0.00 0.00 0.00 0.00 0.00 0.00 0.00 0.00 0.00 0.00 0.01 0.01 0.01 0.01 0.01 0.02 0.03 0.05 0.07
0.43 0.44 0.48 0.49 0.47 0.46 0.48 0.47 0.42 0.37 0.27 0.17 0.13 0.10 0.08 0.06 0.04 0.04 0.03 0.02 0.01 0.01 0.01 0.01 0.00 0.00 0.00 0.00 0.00 0.00 0.00 0.00 0.00 0.01 0.02 0.02 0.02 0.02 0.02 0.02 0.02 0.04 0.05
0.45 0.44 0.47 0.53 0.58 0.57 0.55 0.52 0.47 0.44 0.31 0.22 0.17 0.12 0.09 0.05 0.02 0.02 0.02 0.02 0.02 0.01 0.01 0.01 0.01 0.01 0.01 0.01 0.00 0.00 0.00 0.00 0.00 0.01 0.01 0.02 0.02 0.03 0.04 0.04 0.04 0.04 0.05
0.48 0.47 0.46 0.48 0.52 0.52 0.51 0.40 0.33 0.32 0.22 0.14 0.11 0.08 0.05 0.03 0.01 0.01 0.01 0.01 0.01 0.01 0.01 0.03 0.04 0.04 0.03 0.02 0.01 0.01 0.01 0.01 0.01 0.01 0.01 0.01 0.02 0.02 0.04 0.06 0.06 0.06 0.08
0.46 0.46 0.45 0.46 0.49 0.49 0.47 0.41 0.32 0.24 0.19 0.14 0.09 0.05 0.03 0.02 0.01 0.00 0.00 0.01 0.01 0.01 0.01 0.03 0.05 0.05 0.04 0.03 0.03 0.02 0.02 0.02 0.02 0.01 0.02 0.02 0.02 0.02 0.03 0.05 0.05 0.06 0.08
0.40 0.40 0.40 0.42 0.44 0.44 0.43 0.41 0.35 0.27 0.18 0.12 0.09 0.07 0.04 0.02 0.01 0.00 0.00 0.00 0.00 0.00 0.00 0.01 0.03 0.03 0.03 0.03 0.03 0.02 0.02 0.02 0.02 0.02 0.02 0.03 0.03 0.03 0.03 0.04 0.05 0.07 0.09
0.39 0.41 0.40 0.38 0.39 0.37 0.38 0.37 0.33 0.27 0.19 0.14 0.10 0.07 0.06 0.03 0.02 0.01 0.00 0.00 0.00 0.00 0.00 0.00 0.00 0.01 0.01 0.01 0.01 0.01 0.01 0.01 0.02 0.02 0.02 0.03 0.03 0.03 0.05 0.06 0.06 0.06 0.07
0.44 0.42 0.44 0.42 0.38 0.36 0.34 0.34 0.30 0.25 0.18 0.13 0.11 0.07 0.05 0.02 0.01 0.00 0.00 0.00 0.00 0.00 0.00 0.00 0.00 0.00 0.00 0.00 0.00 0.00 0.00 0.01 0.01 0.01 0.01 0.01 0.01 0.02 0.03 0.05 0.06 0.07 0.07
0.47 0.42 0.40 0.39 0.37 0.36 0.34 0.32 0.29 0.23 0.17 0.12 0.09 0.06 0.04 0.02 0.01 0.01 0.00 0.00 0.00 0.00 0.00 0.00 0.00 0.00 0.00 0.00 0.00 0.00 0.00 0.00 0.00 0.00 0.00 0.00 0.00 0.01 0.01 0.02 0.03 0.04 0.05
0.51 0.46 0.39 0.34 0.34 0.35 0.34 0.30 0.28 0.21 0.14 0.12 0.09 0.08 0.05 0.02 0.01 0.01 0.00 0.00 0.00 0.00 0.00 0.00 0.00 0.00 0.00 0.00 0.00 0.00 0.00 0.00 0.00 0.00 0.00 0.00 0.00 0.00 0.01 0.01 0.03 0.04 0.04
0.50 0.50 0.46 0.36 0.30 0.30 0.30 0.28 0.24 0.20 0.14 0.11 0.09 0.07 0.04 0.02 0.01 0.00 0.00 0.00 0.00 0.00 0.00 0.00 0.00 0.00 0.00 0.00 0.00 0.00 0.00 0.00 0.00 0.00 0.00 0.00 0.00 0.00 0.01 0.02 0.03 0.04 0.05
0.44 0.47 0.46 0.39 0.29 0.24 0.23 0.22 0.20 0.17 0.14 0.10 0.07 0.04 0.03 0.02 0.01 0.01 0.00 0.00 0.00 0.00 0.00 0.00 0.00 0.00 0.00 0.01 0.01 0.01 0.01 0.01 0.00 0.00 0.01 0.00 0.01 0.01 0.01 0.02 0.03 0.04 0.07
0.42 0.42 0.43 0.39 0.31 0.23 0.20 0.19 0.18 0.15 0.11 0.08 0.05 0.03 0.02 0.02 0.01 0.01 0.00 0.00 0.00 0.00 0.00 0.00 0.01 0.01 0.01 0.01 0.03 0.04 0.01 0.00 0.00 0.00 0.00 0.00 0.01 0.01 0.02 0.03 0.04 0.05 0.07
0.41 0.39 0.38 0.35 0.29 0.22 0.18 0.17 0.17 0.13 0.09 0.06 0.03 0.02 0.01 0.01 0.01 0.01 0.01 0.01 0.01 0.01 0.02 0.02 0.02 0.02 0.02 0.04 0.05 0.03 0.01 0.01 0.00 0.00 0.00 0.00 0.00 0.01 0.02 0.02 0.02 0.03 0.04

GEFSGL_prec_meanprecacc_060.txt.gz
Total_Precipitation_Accumulation
0.49 0.48 0.47 0.45 0.44 0.44 0.47 0.47 0.50 0.51 0.53 0.54 0.56 0.58 0.61 0.64 0.68 0.70 0.76 0.84 0.87 0.90 0.92 0.99 1.03 1.09 1.04 0.94 0.91 0.95 1.05 1.08 0.95 1.07 1.05 0.79 0.61 0.50 0.44 0.35 0.26 0.20 0.16
0.46 0.46 0.47 0.44 0.40 0.40 0.40 0.39 0.40 0.42 0.45 0.45 0.47 0.49 0.53 0.58 0.64 0.71 0.78 0.84 0.85 0.84 0.86 0.92 0.92 0.90 0.91 0.87 0.77 0.74 0.86 0.96 0.95 1.00 1.15 1.04 0.74 0.54 0.48 0.39 0.30 0.24 0.23
0.46 0.46 0.43 0.44 0.44 0.40 0.34 0.31 0.30 0.32 0.37 0.35 0.33 0.35 0.40 0.49 0.59 0.64 0.68 0.71 0.80 0.88 0.84 0.81 0.79 0.78 0.87 0.93 0.85 0.80 0.82 0.91 0.97 0.96 1.09 1.11 0.85 0.61 0.54 0.48 0.41 0.42 0.27
0.42 0.41 0.39 0.37 0.37 0.39 0.35 0.30 0.27 0.26 0.28 0.31 0.31 0.34 0.38 0.43 0.50 0.53 0.52 0.52 0.55 0.64 0.67 0.66 0.63 0.62 0.72 0.89 0.89 0.91 0.88 0.84 0.91 0.96 1.06 1.08 1.01 0.78 0.71 0.63 0.57 0.53 0.45
0.44 0.41 0.39 0.38 0.35 0.32 0.29 0.26 0.23 0.20 0.19 0.20 0.22 0.28 0.32 0.35 0.35 0.35 0.37 0.34 0.34 0.34 0.36 0.40 0.43 0.44 0.43 0.51 0.64 0.79 0.86 0.88 0.87 0.90 0.96 1.02 0.95 0.82 0.71 0.68 0.65 0.67 0.65
0.34 0.33 0.35 0.35 0.34 0.33 0.27 0.22 0.19 0.16 0.15 0.16 0.16 0.17 0.19 0.21 0.25 0.26 0.26 0.23 0.18 0.17 0.18 0.20 0.21 0.22 0.25 0.31 0.36 0.45 0.58 0.72 0.85 0.92 0.91 0.92 0.94 0.88 0.82 0.75 0.74 0.74 0.76
0.26 0.28 0.30 0.33 0.35 0.33 0.25 0.20 0.17 0.14 0.14 0.15 0.15 0.14 0.13 0.13 0.15 0.18 0.21 0.16 0.12 0.11 0.13 0.13 0.11 0.10 0.12 0.16 0.20 0.22 0.28 0.34 0.42 0.63 0.77 0.76 0.73 0.75 0.82 0.88 0.88 0.91 0.97
0.29 0.33 0.33 0.32 0.34 0.34 0.27 0.22 0.19 0.17 0.16 0.15 0.16 0.14 0.10 0.08 0.09 0.11 0.12 0.11 0.12 0.12 0.10 0.09 0.08 0.07 0.07 0.08 0.11 0.14 0.12 0.12 0.17 0.25 0.30 0.31 0.36 0.45 0.59 0.76 0.91 1.01 1.14
0.33 0.36 0.36 0.34 0.34 0.33 0.31 0.29 0.27 0.26 0.21 0.17 0.17 0.18 0.13 0.08 0.06 0.08 0.08 0.09 0.10 0.12 0.09 0.07 0.06 0.05 0.04 0.05 0.06 0.08 0.07 0.06 0.06 0.08 0.10 0.12 0.14 0.18 0.25 0.40 0.57 0.80 1.11
0.31 0.31 0.29 0.31 0.34 0.36 0.36 0.36 0.34 0.32 0.27 0.21 0.20 0.19 0.16 0.12 0.06 0.05 0.04 0.07 0.10 0.11 0.08 0.06 0.06 0.06 0.04 0.03 0.04 0.05 0.04 0.03 0.03 0.03 0.04 0.03 0.03 0.04 0.06 0.14 0.26 0.44 0.72
0.30 0.29 0.29 0.30 0.33 0.36 0.41 0.41 0.41 0.38 0.34 0.30 0.27 0.24 0.20 0.13 0.06 0.03 0.03 0.05 0.08 0.09 0.07 0.07 0.07 0.05 0.03 0.03 0.03 0.03 0.02 0.01 0.01 0.02 0.03 0.03 0.03 0.02 0.02 0.04 0.08 0.16 0.29
0.32 0.31 0.31 0.33 0.27 0.28 0.40 0.44 0.47 0.46 0.41 0.38 0.35 0.30 0.24 0.18 0.11 0.03 0.02 0.03 0.05 0.07 0.06 0.05 0.05 0.04 0.02 0.01 0.01 0.01 0.01 0.00 0.01 0.01 0.01 0.02 0.02 0.02 0.01 0.02 0.04 0.08 0.14
0.40 0.41 0.41 0.39 0.37 0.38 0.43 0.45 0.47 0.47 0.45 0.41 0.39 0.38 0.32 0.25 0.17 0.07 0.02 0.02 0.02 0.05 0.04 0.03 0.02 0.02 0.01 0.01 0.01 0.00 0.00 0.00 0.00 0.00 0.01 0.02 0.02 0.01 0.01 0.02 0.03 0.05 0.07
0.45 0.46 0.50 0.51 0.49 0.48 0.53 0.55 0.52 0.51 0.51 0.46 0.42 0.40 0.37 0.32 0.23 0.13 0.06 0.03 0.03 0.03 0.02 0.01 0.01 0.01 0.01 0.00 0.00 0.00 0.00 0.00 0.00 0.01 0.02 0.02 0.02 0.02 0.02 0.02 0.02 0.04 0.05
0.48 0.46 0.50 0.56 0.61 0.60 0.58 0.58 0.58 0.59 0.54 0.52 0.49 0.44 0.42 0.35 0.23 0.15 0.08 0.04 0.03 0.02 0.02 0.01 0.01 0.01 0.01 0.01 0.01 0.00 0.00 0.00 0.00 0.01 0.01 0.02 0.02 0.03 0.04 0.04 0.04 0.04 0.05
0.52 0.49 0.49 0.51 0.55 0.55 0.56 0.46 0.42 0.46 0.42 0.39 0.40 0.41 0.37 0.32 0.26 0.18 0.11 0.06 0.02 0.01 0.01 0.03 0.04 0.04 0.03 0.02 0.01 0.01 0.01 0.01 0.01 0.01 0.01 0.01 0.02 0.02 0.04 0.06 0.06 0.06 0.08
0.50 0.49 0.49 0.49 0.52 0.53 0.53 0.49 0.43 0.38 0.39 0.38 0.37 0.36 0.33 0.29 0.24 0.18 0.13 0.08 0.03 0.01 0.01 0.03 0.05 0.05 0.04 0.03 0.03 0.02 0.02 0.02 0.02 0.01 0.02 0.02 0.02 0.02 0.03 0.05 0.05 0.06 0.08
0.44 0.44 0.44 0.46 0.48 0.49 0.50 0.51 0.50 0.44 0.40 0.39 0.38 0.37 0.30 0.24 0.20 0.18 0.16 0.11 0.05 0.01 0.01 0.02 0.03 0.03 0.03 0.03 0.03 0.02 0.02 0.02 0.02 0.02 0.02 0.03 0.03 0.03 0.03 0.04 0.05 0.07 0.09
0.44 0.46 0.44 0.43 0.44 0.44 0.47 0.50 0.50 0.46 0.43 0.42 0.41 0.37 0.32 0.25 0.20 0.20 0.17 0.11 0.04 0.01 0.01 0.01 0.01 0.01 0.01 0.01 0.01 0.01 0.01 0.01 0.02 0.02 0.02 0.03 0.03 0.03 0.05 0.06 0.06 0.06 0.07
0.49 0.46 0.49 0.48 0.44 0.43 0.44 0.48 0.48 0.44 0.43 0.44 0.43 0.34 0.29 0.25 0.20 0.19 0.15 0.09 0.04 0.01 0.01 0.00 0.00 0.00 0.00 0.00 0.00 0.00 0.00 0.01 0.01 0.01 0.01 0.01 0.01 0.02 0.03 0.05 0.06 0.07 0.07
0.54 0.48 0.46 0.45 0.44 0.43 0.45 0.48 0.49 0.43 0.38 0.39 0.40 0.32 0.24 0.18 0.14 0.11 0.10 0.07 0.03 0.01 0.01 0.00 0.00 0.00 0.00 0.00 0.00 0.00 0.00 0.00 0.00 0.00 0.00 0.00 0.00 0.01 0.01 0.02 0.03 0.04 0.05
0.59 0.53 0.45 0.40 0.40 0.42 0.44 0.46 0.47 0.41 0.35 0.35 0.37 0.31 0.25 0.17 0.12 0.09 0.07 0.05 0.03 0.01 0.00 0.00 0.00 0.00 0.00 0.00 0.00 0.00 0.00 0.00 0.00 0.00 0.00 0.00 0.00 0.00 0.01 0.01 0.03 0.04 0.04
0.57 0.56 0.51 0.41 0.35 0.37 0.40 0.43 0.42 0.38 0.34 0.32 0.32 0.26 0.21 0.16 0.11 0.07 0.05 0.04 0.02 0.01 0.00 0.00 0.00 0.00 0.00 0.00 0.00 0.00 0.00 0.00 0.00 0.00 0.00 0.00 0.00 0.00 0.01 0.02 0.03 0.04 0.05
0.52 0.52 0.51 0.43 0.35 0.32 0.34 0.38 0.36 0.33 0.31 0.29 0.25 0.19 0.16 0.13 0.09 0.06 0.04 0.03 0.02 0.01 0.00 0.00 0.00 0.00 0.00 0.01 0.01 0.01 0.01 0.01 0.00 0.00 0.01 0.00 0.01 0.01 0.01 0.02 0.03 0.04 0.07
0.48 0.47 0.47 0.43 0.36 0.30 0.30 0.32 0.31 0.28 0.25 0.23 0.18 0.13 0.11 0.09 0.07 0.05 0.04 0.03 0.01 0.01 0.00 0.00 0.01 0.01 0.01 0.01 0.03 0.04 0.01 0.00 0.00 0.00 0.00 0.00 0.01 0.01 0.02 0.03 0.04 0.05 0.07
0.47 0.44 0.42 0.39 0.33 0.28 0.27 0.27 0.26 0.23 0.21 0.17 0.11 0.09 0.07 0.06 0.05 0.05 0.04 0.03 0.02 0.02 0.02 0.02 0.02 0.02 0.02 0.04 0.05 0.03 0.01 0.01 0.00 0.00 0.00 0.00 0.00 0.01 0.02 0.02 0.02 0.03 0.04

GEFSGL_prec_meanprecacc_066.txt.gz
Total_Precipitation_Accumulation
0.51 0.51 0.51 0.50 0.50 0.52 0.57 0.57 0.59 0.60 0.61 0.60 0.62 0.64 0.65 0.68 0.71 0.73 0.78 0.86 0.89 0.92 0.95 1.01 1.07 1.15 1.12 1.03 1.02 1.07 1.20 1.26 1.10 1.18 1.14 0.89 0.72 0.61 0.55 0.46 0.33 0.24 0.19
0.47 0.47 0.49 0.47 0.43 0.45 0.46 0.46 0.48 0.51 0.53 0.54 0.55 0.56 0.60 0.64 0.69 0.75 0.81 0.86 0.88 0.87 0.88 0.95 0.96 0.95 0.98 0.96 0.87 0.85 1.00 1.13 1.10 1.12 1.25 1.15 0.86 0.68 0.60 0.51 0.39 0.30 0.27
0.47 0.47 0.44 0.46 0.46 0.43 0.37 0.35 0.36 0.39 0.45 0.44 0.43 0.44 0.48 0.57 0.66 0.70 0.71 0.74 0.82 0.90 0.87 0.84 0.83 0.82 0.94 1.00 0.94 0.91 0.94 1.06 1.13 1.10 1.21 1.25 1.01 0.77 0.70 0.62 0.53 0.51 0.33
0.43 0.42 0.40 0.38 0.38 0.40 0.37 0.33 0.31 0.32 0.36 0.39 0.41 0.44 0.47 0.52 0.58 0.59 0.57 0.55 0.57 0.66 0.69 0.69 0.67 0.67 0.78 0.96 0.97 1.01 1.00 0.96 1.04 1.09 1.19 1.24 1.22 0.99 0.86 0.75 0.69 0.64 0.53
0.44 0.41 0.40 0.39 0.35 0.33 0.30 0.28 0.26 0.25 0.25 0.28 0.32 0.39 0.43 0.45 0.42 0.42 0.43 0.38 0.37 0.36 0.37 0.42 0.45 0.48 0.48 0.57 0.72 0.89 0.97 0.98 0.97 1.02 1.09 1.16 1.13 1.06 0.87 0.78 0.74 0.76 0.73
0.34 0.33 0.36 0.36 0.34 0.33 0.27 0.23 0.21 0.19 0.20 0.23 0.25 0.27 0.29 0.31 0.33 0.31 0.30 0.26 0.21 0.19 0.19 0.20 0.22 0.24 0.28 0.35 0.40 0.53 0.69 0.84 0.98 1.05 1.05 1.06 1.09 1.07 0.99 0.87 0.82 0.79 0.82
0.26 0.28 0.30 0.33 0.35 0.33 0.25 0.21 0.18 0.16 0.17 0.20 0.22 0.22 0.22 0.25 0.23 0.22 0.23 0.19 0.15 0.14 0.14 0.14 0.12 0.12 0.15 0.20 0.24 0.27 0.35 0.45 0.57 0.79 0.94 0.93 0.89 0.90 0.95 0.99 0.97 0.97 1.02
0.29 0.33 0.33 0.32 0.35 0.34 0.27 0.23 0.20 0.19 0.18 0.20 0.22 0.21 0.20 0.21 0.19 0.17 0.17 0.14 0.15 0.15 0.12 0.11 0.11 0.10 0.11 0.12 0.15 0.19 0.17 0.18 0.27 0.38 0.44 0.46 0.49 0.57 0.71 0.87 1.00 1.08 1.20
0.34 0.37 0.36 0.34 0.35 0.34 0.32 0.31 0.29 0.29 0.24 0.20 0.22 0.24 0.22 0.21 0.20 0.18 0.16 0.14 0.14 0.15 0.11 0.10 0.09 0.09 0.09 0.08 0.11 0.14 0.12 0.10 0.13 0.18 0.21 0.25 0.27 0.28 0.34 0.49 0.65 0.85 1.16
0.31 0.31 0.29 0.32 0.36 0.37 0.38 0.39 0.37 0.36 0.30 0.25 0.24 0.25 0.25 0.24 0.21 0.18 0.15 0.15 0.16 0.16 0.11 0.08 0.08 0.09 0.08 0.07 0.09 0.10 0.09 0.08 0.08 0.11 0.13 0.13 0.14 0.13 0.13 0.20 0.30 0.48 0.75
0.30 0.30 0.30 0.31 0.35 0.38 0.44 0.47 0.47 0.43 0.39 0.35 0.32 0.30 0.29 0.25 0.22 0.18 0.17 0.18 0.19 0.18 0.12 0.09 0.08 0.07 0.06 0.06 0.07 0.07 0.06 0.05 0.05 0.07 0.10 0.10 0.10 0.09 0.09 0.10 0.12 0.18 0.31
0.33 0.33 0.33 0.36 0.29 0.29 0.44 0.51 0.54 0.53 0.48 0.43 0.42 0.39 0.36 0.32 0.27 0.22 0.19 0.20 0.22 0.23 0.16 0.10 0.07 0.07 0.05 0.04 0.05 0.05 0.04 0.04 0.04 0.04 0.06 0.07 0.08 0.07 0.06 0.05 0.07 0.09 0.15
0.42 0.44 0.45 0.43 0.41 0.43 0.49 0.52 0.54 0.55 0.53 0.48 0.48 0.48 0.46 0.43 0.37 0.29 0.25 0.24 0.23 0.26 0.18 0.10 0.06 0.05 0.05 0.04 0.05 0.04 0.02 0.03 0.03 0.03 0.04 0.06 0.05 0.04 0.03 0.04 0.04 0.05 0.07
0.50 0.52 0.55 0.57 0.54 0.54 0.61 0.62 0.60 0.59 0.59 0.55 0.53 0.50 0.51 0.51 0.48 0.41 0.34 0.30 0.26 0.23 0.17 0.09 0.06 0.04 0.04 0.04 0.03 0.02 0.01 0.02 0.02 0.03 0.04 0.04 0.04 0.04 0.03 0.02 0.02 0.04 0.05
0.54 0.52 0.55 0.63 0.67 0.66 0.65 0.65 0.64 0.66 0.62 0.60 0.59 0.54 0.54 0.53 0.49 0.46 0.42 0.36 0.32 0.26 0.18 0.10 0.06 0.04 0.04 0.03 0.02 0.01 0.01 0.01 0.02 0.02 0.02 0.03 0.03 0.04 0.05 0.05 0.04 0.04 0.05
0.59 0.56 0.56 0.58 0.63 0.63 0.63 0.52 0.46 0.48 0.44 0.41 0.45 0.47 0.47 0.45 0.46 0.45 0.41 0.35 0.33 0.31 0.22 0.13 0.08 0.06 0.05 0.03 0.02 0.02 0.02 0.02 0.02 0.02 0.02 0.02 0.02 0.03 0.04 0.06 0.06 0.06 0.08
0.58 0.58 0.57 0.57 0.60 0.60 0.60 0.57 0.49 0.44 0.44 0.41 0.40 0.39 0.39 0.40 0.43 0.41 0.39 0.35 0.31 0.30 0.23 0.15 0.10 0.08 0.06 0.04 0.03 0.02 0.02 0.02 0.02 0.02 0.02 0.02 0.02 0.02 0.03 0.05 0.05 0.06 0.08
0.53 0.52 0.51 0.53 0.55 0.56 0.58 0.59 0.60 0.54 0.50 0.49 0.46 0.42 0.36 0.33 0.36 0.38 0.38 0.37 0.31 0.24 0.17 0.13 0.10 0.06 0.05 0.04 0.03 0.03 0.02 0.02 0.02 0.02 0.02 0.03 0.03 0.03 0.03 0.04 0.05 0.07 0.09
0.53 0.54 0.52 0.50 0.50 0.50 0.53 0.58 0.60 0.58 0.56 0.55 0.53 0.46 0.40 0.36 0.35 0.38 0.36 0.30 0.23 0.16 0.10 0.09 0.06 0.04 0.02 0.02 0.02 0.02 0.01 0.01 0.02 0.02 0.02 0.03 0.03 0.03 0.05 0.06 0.06 0.06 0.07
0.57 0.54 0.57 0.55 0.50 0.49 0.51 0.57 0.60 0.58 0.57 0.58 0.56 0.46 0.39 0.36 0.34 0.36 0.32 0.24 0.16 0.10 0.08 0.06 0.04 0.03 0.01 0.01 0.01 0.01 0.01 0.01 0.01 0.01 0.01 0.01 0.01 0.02 0.03 0.05 0.06 0.07 0.07
0.64 0.56 0.53 0.52 0.50 0.51 0.54 0.58 0.60 0.56 0.52 0.53 0.53 0.44 0.35 0.29 0.25 0.23 0.21 0.18 0.12 0.07 0.06 0.04 0.03 0.02 0.01 0.00 0.00 0.00 0.00 0.00 0.00 0.00 0.00 0.00 0.00 0.01 0.01 0.02 0.03 0.04 0.05
0.70 0.62 0.52 0.47 0.47 0.51 0.54 0.57 0.59 0.54 0.47 0.47 0.49 0.42 0.34 0.27 0.22 0.17 0.14 0.12 0.09 0.05 0.04 0.03 0.02 0.02 0.01 0.00 0.00 0.00 0.00 0.00 0.00 0.00 0.00 0.00 0.00 0.00 0.01 0.01 0.03 0.04 0.04
0.67 0.64 0.58 0.49 0.43 0.44 0.48 0.54 0.54 0.51 0.47 0.45 0.44 0.36 0.31 0.26 0.19 0.14 0.11 0.10 0.08 0.05 0.02 0.02 0.02 0.01 0.01 0.00 0.00 0.00 0.00 0.00 0.00 0.00 0.00 0.00 0.00 0.00 0.01 0.02 0.03 0.04 0.05
0.60 0.60 0.58 0.51 0.42 0.39 0.42 0.48 0.48 0.46 0.44 0.40 0.35 0.28 0.25 0.22 0.16 0.11 0.09 0.08 0.06 0.04 0.03 0.02 0.01 0.01 0.01 0.01 0.01 0.01 0.01 0.01 0.00 0.00 0.01 0.00 0.01 0.01 0.01 0.02 0.03 0.04 0.07
0.55 0.55 0.56 0.52 0.43 0.37 0.40 0.44 0.45 0.42 0.39 0.34 0.28 0.23 0.21 0.17 0.14 0.10 0.08 0.06 0.05 0.04 0.02 0.02 0.02 0.01 0.01 0.01 0.03 0.04 0.01 0.00 0.00 0.00 0.00 0.00 0.01 0.01 0.02 0.03 0.04 0.05 0.07
0.55 0.53 0.51 0.47 0.41 0.36 0.37 0.39 0.39 0.36 0.33 0.28 0.21 0.18 0.17 0.14 0.12 0.09 0.07 0.06 0.05 0.04 0.03 0.03 0.03 0.02 0.03 0.04 0.05 0.03 0.01 0.01 0.00 0.00 0.00 0.00 0.00 0.01 0.02 0.02 0.02 0.03 0.04

GEFSGL_prec_meanprecacc_072.txt.gz
Total_Precipitation_Accumulation
0.52 0.52 0.52 0.51 0.51 0.54 0.59 0.60 0.63 0.64 0.66 0.67 0.69 0.72 0.75 0.76 0.79 0.81 0.85 0.92 0.94 0.95 0.96 1.02 1.07 1.15 1.12 1.03 1.02 1.09 1.22 1.30 1.13 1.20 1.18 0.95 0.80 0.68 0.61 0.52 0.38 0.29 0.24
0.47 0.48 0.50 0.47 0.44 0.45 0.47 0.48 0.50 0.53 0.56 0.57 0.59 0.61 0.66 0.71 0.76 0.83 0.88 0.92 0.93 0.91 0.91 0.97 0.97 0.96 0.99 0.96 0.88 0.87 1.02 1.16 1.13 1.15 1.29 1.19 0.91 0.74 0.67 0.57 0.44 0.34 0.31
0.47 0.47 0.44 0.46 0.46 0.43 0.37 0.36 0.36 0.40 0.46 0.46 0.45 0.47 0.53 0.62 0.72 0.77 0.78 0.81 0.88 0.95 0.91 0.88 0.86 0.84 0.95 1.01 0.94 0.91 0.96 1.08 1.16 1.14 1.25 1.29 1.07 0.83 0.77 0.70 0.60 0.57 0.37
0.43 0.42 0.40 0.38 0.38 0.40 0.38 0.34 0.32 0.33 0.37 0.41 0.42 0.46 0.50 0.56 0.62 0.65 0.64 0.63 0.64 0.70 0.73 0.72 0.69 0.68 0.79 0.96 0.98 1.02 1.02 0.99 1.07 1.13 1.24 1.30 1.29 1.06 0.94 0.86 0.80 0.72 0.59
0.45 0.41 0.40 0.39 0.35 0.33 0.31 0.28 0.27 0.25 0.25 0.29 0.32 0.40 0.45 0.48 0.46 0.48 0.50 0.46 0.44 0.41 0.42 0.45 0.47 0.49 0.49 0.57 0.73 0.90 0.98 0.99 0.99 1.05 1.13 1.22 1.21 1.16 0.97 0.88 0.84 0.86 0.82
0.34 0.33 0.36 0.36 0.34 0.33 0.28 0.23 0.21 0.20 0.21 0.24 0.26 0.28 0.31 0.33 0.36 0.37 0.37 0.34 0.30 0.27 0.25 0.23 0.24 0.26 0.29 0.35 0.41 0.54 0.70 0.85 1.00 1.07 1.08 1.11 1.15 1.14 1.07 0.96 0.91 0.87 0.92
0.26 0.28 0.30 0.33 0.36 0.34 0.25 0.21 0.18 0.17 0.18 0.21 0.22 0.22 0.23 0.26 0.25 0.26 0.29 0.25 0.22 0.22 0.21 0.19 0.15 0.13 0.15 0.20 0.24 0.28 0.36 0.47 0.59 0.82 0.97 0.97 0.95 0.98 1.05 1.07 1.04 1.04 1.10
0.29 0.33 0.33 0.32 0.35 0.34 0.28 0.23 0.21 0.19 0.19 0.20 0.22 0.21 0.21 0.21 0.20 0.19 0.21 0.19 0.22 0.23 0.20 0.18 0.15 0.12 0.12 0.13 0.16 0.19 0.17 0.20 0.29 0.41 0.48 0.50 0.56 0.67 0.83 0.98 1.08 1.16 1.29
0.34 0.37 0.36 0.35 0.35 0.35 0.33 0.31 0.30 0.29 0.24 0.20 0.22 0.25 0.23 0.22 0.21 0.20 0.19 0.19 0.21 0.24 0.21 0.19 0.16 0.12 0.10 0.10 0.11 0.14 0.13 0.12 0.16 0.23 0.28 0.33 0.38 0.42 0.46 0.59 0.75 0.95 1.26
0.32 0.32 0.30 0.32 0.36 0.38 0.38 0.39 0.38 0.37 0.30 0.25 0.24 0.26 0.25 0.25 0.22 0.19 0.18 0.19 0.24 0.26 0.22 0.20 0.19 0.15 0.11 0.09 0.10 0.10 0.10 0.10 0.10 0.15 0.19 0.21 0.23 0.25 0.24 0.28 0.38 0.57 0.84
0.31 0.31 0.32 0.32 0.36 0.39 0.45 0.48 0.48 0.44 0.40 0.35 0.32 0.30 0.30 0.26 0.23 0.19 0.19 0.21 0.26 0.31 0.27 0.24 0.21 0.18 0.12 0.10 0.10 0.09 0.08 0.07 0.08 0.11 0.15 0.17 0.18 0.18 0.17 0.17 0.18 0.24 0.38
0.35 0.34 0.34 0.37 0.30 0.30 0.45 0.52 0.55 0.55 0.49 0.44 0.43 0.40 0.36 0.33 0.28 0.23 0.22 0.24 0.28 0.36 0.36 0.31 0.24 0.21 0.15 0.10 0.09 0.08 0.08 0.08 0.08 0.10 0.11 0.14 0.15 0.15 0.14 0.13 0.13 0.15 0.18
0.45 0.46 0.46 0.44 0.42 0.44 0.50 0.54 0.56 0.57 0.55 0.49 0.49 0.49 0.48 0.45 0.39 0.31 0.27 0.29 0.31 0.39 0.39 0.38 0.30 0.23 0.17 0.11 0.10 0.08 0.07 0.07 0.08 0.09 0.11 0.12 0.12 0.10 0.09 0.10 0.11 0.11 0.12
0.53 0.54 0.57 0.59 0.56 0.55 0.62 0.64 0.62 0.61 0.61 0.57 0.56 0.53 0.53 0.53 0.50 0.44 0.38 0.36 0.37 0.37 0.39 0.40 0.36 0.26 0.17 0.12 0.09 0.08 0.06 0.07 0.08 0.08 0.10 0.11 0.10 0.09 0.09 0.07 0.07 0.09 0.11
0.58 0.55 0.58 0.65 0.70 0.68 0.67 0.68 0.66 0.68 0.64 0.62 0.61 0.56 0.57 0.55 0.51 0.50 0.47 0.45 0.44 0.41 0.41 0.39 0.39 0.30 0.19 0.12 0.08 0.07 0.07 0.08 0.07 0.06 0.06 0.08 0.09 0.09 0.09 0.09 0.08 0.07 0.08
0.65 0.61 0.60 0.62 0.66 0.66 0.66 0.54 0.48 0.49 0.45 0.42 0.45 0.47 0.48 0.47 0.47 0.48 0.46 0.45 0.46 0.48 0.44 0.38 0.37 0.35 0.22 0.12 0.08 0.07 0.07 0.07 0.06 0.05 0.05 0.05 0.07 0.06 0.08 0.10 0.10 0.10 0.11
0.65 0.63 0.62 0.61 0.64 0.64 0.64 0.59 0.51 0.45 0.45 0.42 0.40 0.39 0.40 0.41 0.45 0.45 0.45 0.46 0.46 0.46 0.42 0.37 0.34 0.31 0.24 0.14 0.08 0.06 0.06 0.07 0.06 0.05 0.04 0.04 0.05 0.05 0.06 0.08 0.09 0.10 0.11
0.58 0.57 0.56 0.57 0.58 0.59 0.61 0.62 0.62 0.56 0.52 0.50 0.48 0.43 0.36 0.34 0.39 0.43 0.45 0.48 0.44 0.39 0.34 0.34 0.31 0.24 0.19 0.13 0.08 0.06 0.06 0.05 0.04 0.04 0.04 0.04 0.04 0.04 0.05 0.06 0.07 0.08 0.10
0.58 0.57 0.55 0.53 0.53 0.52 0.55 0.60 0.62 0.60 0.59 0.57 0.55 0.49 0.42 0.38 0.38 0.42 0.43 0.40 0.33 0.28 0.24 0.27 0.26 0.19 0.13 0.09 0.06 0.05 0.04 0.03 0.03 0.03 0.03 0.04 0.04 0.05 0.06 0.07 0.07 0.07 0.08
0.61 0.58 0.61 0.59 0.52 0.51 0.53 0.59 0.63 0.61 0.61 0.61 0.59 0.51 0.42 0.39 0.37 0.40 0.39 0.32 0.24 0.20 0.17 0.19 0.20 0.15 0.10 0.07 0.05 0.03 0.02 0.02 0.01 0.01 0.01 0.01 0.02 0.03 0.04 0.05 0.06 0.07 0.08
0.68 0.60 0.57 0.55 0.52 0.53 0.56 0.62 0.64 0.59 0.56 0.57 0.58 0.48 0.38 0.32 0.28 0.27 0.27 0.24 0.18 0.14 0.13 0.14 0.14 0.12 0.08 0.05 0.04 0.02 0.01 0.01 0.01 0.01 0.00 0.01 0.01 0.01 0.01 0.02 0.03 0.04 0.05
0.75 0.67 0.57 0.51 0.51 0.55 0.59 0.63 0.65 0.59 0.51 0.52 0.54 0.46 0.37 0.30 0.25 0.22 0.19 0.17 0.13 0.08 0.08 0.09 0.09 0.08 0.06 0.04 0.03 0.02 0.01 0.01 0.01 0.00 0.00 0.00 0.00 0.01 0.01 0.01 0.03 0.04 0.04
0.73 0.70 0.63 0.53 0.48 0.51 0.55 0.59 0.59 0.55 0.51 0.49 0.47 0.40 0.33 0.28 0.23 0.17 0.15 0.12 0.09 0.06 0.05 0.06 0.06 0.05 0.05 0.03 0.02 0.02 0.01 0.01 0.01 0.01 0.00 0.00 0.00 0.00 0.01 0.02 0.03 0.04 0.05
0.67 0.66 0.64 0.56 0.46 0.44 0.49 0.54 0.53 0.52 0.50 0.46 0.40 0.32 0.28 0.24 0.19 0.14 0.11 0.10 0.08 0.06 0.04 0.04 0.03 0.03 0.03 0.03 0.02 0.02 0.02 0.01 0.01 0.01 0.01 0.00 0.01 0.01 0.01 0.02 0.03 0.04 0.07
0.62 0.62 0.62 0.57 0.48 0.43 0.48 0.53 0.52 0.47 0.43 0.38 0.31 0.26 0.23 0.19 0.15 0.12 0.10 0.08 0.06 0.05 0.03 0.02 0.02 0.02 0.02 0.03 0.04 0.04 0.01 0.01 0.00 0.00 0.00 0.00 0.01 0.01 0.02 0.03 0.04 0.05 0.07
0.63 0.61 0.58 0.53 0.47 0.42 0.44 0.47 0.47 0.42 0.37 0.31 0.23 0.20 0.18 0.15 0.13 0.11 0.08 0.07 0.05 0.05 0.04 0.03 0.03 0.03 0.03 0.04 0.05 0.03 0.01 0.01 0.00 0.00 0.00 0.00 0.00 0.01 0.02 0.02 0.02 0.03 0.04

GEFSGL_prec_meanprecacc_078.txt.gz
Total_Precipitation_Accumulation
0.52 0.52 0.52 0.51 0.51 0.54 0.59 0.61 0.63 0.64 0.66 0.67 0.70 0.73 0.78 0.81 0.85 0.87 0.91 0.98 1.00 0.99 0.98 1.04 1.08 1.17 1.13 1.03 1.03 1.09 1.22 1.30 1.14 1.21 1.18 0.96 0.81 0.69 0.62 0.53 0.38 0.30 0.26
0.47 0.48 0.50 0.47 0.44 0.45 0.47 0.48 0.50 0.53 0.56 0.57 0.59 0.62 0.67 0.73 0.80 0.89 0.95 0.99 0.99 0.97 0.96 1.00 0.99 0.98 1.00 0.97 0.88 0.87 1.03 1.17 1.14 1.15 1.29 1.20 0.92 0.76 0.69 0.59 0.45 0.35 0.32
0.47 0.47 0.44 0.46 0.46 0.43 0.37 0.36 0.36 0.40 0.46 0.46 0.45 0.47 0.53 0.63 0.73 0.79 0.83 0.87 0.94 1.01 0.97 0.93 0.89 0.87 0.97 1.02 0.95 0.92 0.96 1.08 1.17 1.15 1.26 1.30 1.08 0.85 0.79 0.72 0.62 0.58 0.40
0.43 0.42 0.40 0.39 0.39 0.40 0.38 0.34 0.32 0.33 0.37 0.41 0.42 0.46 0.50 0.56 0.63 0.66 0.66 0.65 0.67 0.75 0.78 0.77 0.73 0.71 0.81 0.98 0.99 1.03 1.02 0.99 1.08 1.14 1.25 1.31 1.30 1.08 0.96 0.88 0.83 0.76 0.62
0.45 0.41 0.40 0.39 0.35 0.33 0.31 0.28 0.27 0.25 0.25 0.29 0.33 0.40 0.45 0.48 0.47 0.48 0.51 0.47 0.45 0.43 0.45 0.49 0.51 0.52 0.52 0.60 0.75 0.91 0.99 1.00 1.00 1.06 1.14 1.23 1.23 1.18 1.00 0.90 0.87 0.90 0.86
0.34 0.33 0.36 0.36 0.34 0.34 0.28 0.23 0.22 0.20 0.21 0.24 0.26 0.28 0.31 0.33 0.36 0.37 0.37 0.35 0.30 0.28 0.27 0.27 0.28 0.31 0.33 0.38 0.43 0.56 0.71 0.86 1.01 1.09 1.09 1.12 1.16 1.16 1.10 0.99 0.94 0.91 0.98
0.26 0.29 0.31 0.34 0.36 0.34 0.26 0.21 0.19 0.17 0.18 0.21 0.22 0.22 0.23 0.26 0.25 0.26 0.29 0.25 0.22 0.22 0.23 0.22 0.19 0.18 0.20 0.24 0.27 0.30 0.38 0.48 0.60 0.84 0.99 0.98 0.95 0.99 1.07 1.10 1.06 1.07 1.13
0.29 0.33 0.34 0.33 0.36 0.35 0.29 0.24 0.22 0.20 0.19 0.20 0.22 0.22 0.21 0.22 0.20 0.20 0.21 0.19 0.22 0.24 0.21 0.20 0.18 0.16 0.16 0.17 0.20 0.22 0.19 0.21 0.30 0.42 0.50 0.52 0.57 0.69 0.86 1.02 1.13 1.21 1.34
0.34 0.38 0.38 0.36 0.37 0.36 0.34 0.32 0.31 0.30 0.25 0.21 0.23 0.25 0.23 0.22 0.21 0.20 0.19 0.19 0.21 0.24 0.22 0.21 0.20 0.17 0.16 0.15 0.15 0.18 0.15 0.13 0.18 0.25 0.30 0.36 0.41 0.45 0.51 0.65 0.81 1.01 1.33
0.33 0.34 0.32 0.35 0.39 0.40 0.40 0.41 0.40 0.39 0.32 0.26 0.25 0.26 0.26 0.25 0.22 0.19 0.18 0.19 0.24 0.26 0.24 0.22 0.23 0.22 0.18 0.16 0.16 0.15 0.13 0.12 0.12 0.17 0.21 0.24 0.27 0.29 0.30 0.33 0.44 0.63 0.90
0.33 0.34 0.34 0.35 0.39 0.42 0.47 0.50 0.51 0.47 0.42 0.37 0.34 0.31 0.31 0.27 0.23 0.19 0.20 0.22 0.27 0.32 0.29 0.27 0.25 0.26 0.22 0.20 0.19 0.16 0.13 0.11 0.11 0.14 0.18 0.22 0.22 0.23 0.24 0.23 0.24 0.30 0.44
0.38 0.37 0.36 0.39 0.33 0.33 0.48 0.55 0.58 0.58 0.52 0.47 0.46 0.42 0.38 0.34 0.29 0.23 0.23 0.25 0.29 0.37 0.37 0.34 0.28 0.29 0.27 0.24 0.22 0.20 0.16 0.13 0.11 0.13 0.16 0.21 0.22 0.22 0.21 0.20 0.21 0.22 0.26
0.48 0.50 0.49 0.46 0.44 0.47 0.54 0.58 0.60 0.60 0.58 0.52 0.52 0.51 0.49 0.46 0.40 0.32 0.28 0.30 0.32 0.40 0.41 0.42 0.37 0.31 0.32 0.28 0.27 0.24 0.16 0.13 0.13 0.14 0.16 0.19 0.18 0.16 0.14 0.17 0.20 0.20 0.19
0.57 0.57 0.59 0.61 0.58 0.58 0.65 0.68 0.66 0.65 0.65 0.60 0.58 0.55 0.55 0.55 0.50 0.45 0.38 0.37 0.38 0.38 0.41 0.45 0.46 0.38 0.34 0.33 0.31 0.25 0.17 0.14 0.15 0.14 0.16 0.17 0.17 0.15 0.14 0.13 0.15 0.16 0.18
0.63 0.59 0.62 0.68 0.73 0.72 0.70 0.71 0.70 0.71 0.67 0.65 0.63 0.59 0.58 0.56 0.52 0.50 0.47 0.45 0.45 0.44 0.45 0.47 0.51 0.45 0.38 0.35 0.33 0.27 0.21 0.17 0.16 0.14 0.13 0.16 0.17 0.17 0.16 0.15 0.14 0.12 0.13
0.71 0.66 0.64 0.65 0.69 0.69 0.69 0.57 0.50 0.52 0.47 0.44 0.47 0.49 0.50 0.48 0.48 0.48 0.47 0.46 0.48 0.53 0.51 0.47 0.50 0.53 0.46 0.38 0.33 0.30 0.25 0.18 0.15 0.14 0.12 0.13 0.14 0.14 0.14 0.16 0.16 0.14 0.14
0.71 0.69 0.66 0.65 0.67 0.67 0.66 0.62 0.54 0.48 0.47 0.44 0.42 0.41 0.41 0.43 0.47 0.46 0.46 0.48 0.49 0.51 0.49 0.46 0.47 0.49 0.48 0.42 0.34 0.28 0.24 0.18 0.14 0.13 0.12 0.11 0.12 0.13 0.12 0.13 0.13 0.14 0.15
0.64 0.62 0.60 0.60 0.61 0.61 0.63 0.64 0.64 0.58 0.54 0.52 0.50 0.45 0.38 0.36 0.40 0.45 0.47 0.50 0.48 0.43 0.42 0.44 0.45 0.43 0.42 0.40 0.33 0.28 0.22 0.17 0.13 0.12 0.12 0.11 0.11 0.12 0.13 0.11 0.11 0.12 0.15
0.63 0.62 0.59 0.56 0.55 0.55 0.58 0.63 0.65 0.63 0.61 0.59 0.57 0.51 0.46 0.42 0.41 0.45 0.47 0.44 0.37 0.34 0.34 0.40 0.40 0.38 0.35 0.32 0.27 0.22 0.17 0.12 0.10 0.09 0.10 0.10 0.10 0.11 0.13 0.13 0.11 0.11 0.12
0.67 0.64 0.68 0.64 0.56 0.54 0.57 0.63 0.66 0.63 0.63 0.64 0.62 0.53 0.46 0.43 0.41 0.44 0.42 0.36 0.30 0.27 0.27 0.34 0.38 0.35 0.31 0.26 0.21 0.16 0.12 0.09 0.07 0.06 0.06 0.06 0.07 0.08 0.10 0.11 0.11 0.10 0.11
0.74 0.66 0.64 0.61 0.57 0.57 0.61 0.66 0.67 0.64 0.61 0.61 0.61 0.51 0.43 0.36 0.32 0.31 0.31 0.30 0.26 0.22 0.23 0.28 0.31 0.29 0.25 0.20 0.16 0.14 0.11 0.08 0.05 0.04 0.04 0.04 0.05 0.06 0.06 0.07 0.07 0.07 0.07
0.81 0.73 0.63 0.57 0.56 0.62 0.66 0.66 0.69 0.63 0.55 0.55 0.57 0.49 0.40 0.33 0.29 0.26 0.24 0.23 0.20 0.16 0.17 0.20 0.23 0.22 0.19 0.15 0.12 0.12 0.10 0.07 0.05 0.03 0.03 0.03 0.04 0.04 0.04 0.05 0.07 0.07 0.06
0.78 0.76 0.69 0.59 0.53 0.58 0.62 0.63 0.62 0.57 0.53 0.50 0.49 0.43 0.36 0.31 0.25 0.20 0.19 0.17 0.15 0.13 0.12 0.14 0.16 0.17 0.14 0.11 0.10 0.10 0.09 0.06 0.04 0.03 0.03 0.03 0.03 0.03 0.04 0.04 0.05 0.07 0.08
0.72 0.72 0.70 0.61 0.51 0.49 0.54 0.59 0.57 0.56 0.54 0.49 0.42 0.35 0.31 0.26 0.21 0.17 0.15 0.13 0.12 0.11 0.10 0.12 0.13 0.12 0.11 0.09 0.09 0.08 0.08 0.05 0.03 0.03 0.03 0.02 0.03 0.03 0.03 0.03 0.04 0.06 0.09
0.68 0.67 0.68 0.62 0.52 0.47 0.52 0.58 0.56 0.51 0.46 0.40 0.33 0.28 0.25 0.21 0.17 0.15 0.13 0.11 0.10 0.09 0.09 0.09 0.09 0.08 0.07 0.07 0.07 0.08 0.06 0.04 0.02 0.02 0.02 0.01 0.02 0.03 0.03 0.03 0.04 0.06 0.08
0.69 0.67 0.63 0.58 0.51 0.46 0.47 0.52 0.51 0.44 0.40 0.33 0.25 0.21 0.19 0.17 0.15 0.13 0.10 0.08 0.08 0.08 0.07 0.07 0.06 0.05 0.05 0.07 0.08 0.06 0.04 0.02 0.01 0.01 0.01 0.01 0.01 0.02 0.03 0.03 0.03 0.03 0.05

GEFSGL_prec_meanprecacc_084.txt.gz
Total_Precipitation_Accumulation
0.52 0.52 0.52 0.51 0.52 0.54 0.60 0.61 0.63 0.64 0.66 0.67 0.70 0.74 0.78 0.83 0.88 0.90 0.95 1.03 1.07 1.09 1.11 1.17 1.20 1.28 1.22 1.09 1.08 1.13 1.26 1.34 1.16 1.22 1.19 0.96 0.82 0.71 0.63 0.54 0.39 0.31 0.27
0.47 0.48 0.50 0.47 0.44 0.46 0.47 0.48 0.50 0.53 0.56 0.57 0.60 0.63 0.68 0.74 0.82 0.91 0.97 1.02 1.03 1.03 1.06 1.12 1.13 1.12 1.12 1.06 0.96 0.92 1.07 1.20 1.17 1.18 1.31 1.21 0.93 0.78 0.70 0.60 0.46 0.36 0.34
0.47 0.47 0.44 0.46 0.47 0.44 0.38 0.37 0.37 0.41 0.47 0.46 0.46 0.48 0.54 0.64 0.75 0.81 0.85 0.90 0.97 1.05 1.02 1.01 1.00 1.01 1.11 1.14 1.05 0.99 1.02 1.13 1.21 1.19 1.29 1.32 1.09 0.86 0.81 0.73 0.63 0.60 0.41
0.43 0.42 0.40 0.39 0.39 0.41 0.39 0.35 0.33 0.34 0.38 0.41 0.43 0.47 0.51 0.56 0.63 0.67 0.67 0.67 0.69 0.78 0.81 0.80 0.78 0.78 0.90 1.09 1.10 1.12 1.11 1.05 1.12 1.18 1.28 1.33 1.32 1.09 0.98 0.90 0.85 0.78 0.64
0.45 0.41 0.40 0.39 0.36 0.33 0.31 0.29 0.28 0.27 0.27 0.30 0.34 0.41 0.46 0.48 0.47 0.49 0.52 0.48 0.46 0.45 0.47 0.51 0.54 0.56 0.57 0.67 0.84 1.01 1.08 1.08 1.06 1.10 1.18 1.26 1.24 1.20 1.02 0.92 0.89 0.93 0.89
0.35 0.33 0.36 0.37 0.35 0.35 0.29 0.24 0.23 0.22 0.24 0.27 0.29 0.30 0.32 0.33 0.37 0.37 0.37 0.35 0.32 0.29 0.28 0.29 0.30 0.34 0.36 0.42 0.50 0.65 0.82 0.95 1.07 1.14 1.13 1.15 1.18 1.18 1.12 1.01 0.96 0.93 1.01
0.27 0.30 0.32 0.35 0.38 0.36 0.27 0.23 0.21 0.20 0.22 0.25 0.26 0.26 0.25 0.28 0.26 0.26 0.29 0.26 0.24 0.24 0.25 0.24 0.20 0.20 0.24 0.28 0.32 0.36 0.46 0.56 0.67 0.90 1.04 1.02 0.99 1.02 1.10 1.13 1.09 1.10 1.15
0.30 0.35 0.36 0.36 0.39 0.38 0.32 0.28 0.25 0.24 0.24 0.25 0.27 0.26 0.25 0.25 0.21 0.20 0.21 0.20 0.23 0.25 0.22 0.22 0.20 0.17 0.18 0.22 0.26 0.28 0.25 0.27 0.35 0.47 0.54 0.57 0.63 0.75 0.91 1.07 1.18 1.25 1.37
0.36 0.40 0.41 0.40 0.41 0.41 0.39 0.37 0.36 0.36 0.31 0.26 0.28 0.30 0.28 0.26 0.23 0.20 0.20 0.20 0.23 0.26 0.23 0.23 0.22 0.18 0.17 0.17 0.21 0.26 0.22 0.20 0.25 0.31 0.35 0.40 0.45 0.50 0.56 0.70 0.86 1.06 1.39
0.35 0.36 0.35 0.39 0.44 0.46 0.46 0.47 0.46 0.46 0.39 0.33 0.31 0.32 0.31 0.30 0.25 0.20 0.19 0.21 0.26 0.29 0.26 0.24 0.24 0.23 0.19 0.17 0.18 0.22 0.23 0.20 0.19 0.22 0.26 0.28 0.29 0.32 0.33 0.37 0.48 0.67 0.95
0.36 0.37 0.37 0.39 0.45 0.47 0.53 0.57 0.59 0.55 0.51 0.45 0.40 0.37 0.37 0.32 0.27 0.20 0.20 0.24 0.30 0.35 0.33 0.29 0.27 0.27 0.22 0.20 0.21 0.21 0.21 0.21 0.21 0.22 0.25 0.28 0.28 0.27 0.27 0.26 0.28 0.34 0.48
0.41 0.40 0.40 0.44 0.37 0.38 0.55 0.62 0.66 0.67 0.62 0.55 0.54 0.49 0.45 0.40 0.32 0.26 0.23 0.26 0.31 0.40 0.41 0.38 0.32 0.31 0.28 0.25 0.24 0.23 0.23 0.23 0.22 0.24 0.25 0.29 0.29 0.27 0.25 0.25 0.25 0.28 0.32
0.51 0.53 0.53 0.51 0.49 0.52 0.61 0.65 0.67 0.69 0.67 0.60 0.60 0.60 0.57 0.52 0.46 0.34 0.29 0.30 0.32 0.42 0.45 0.46 0.41 0.33 0.33 0.30 0.31 0.29 0.23 0.22 0.22 0.23 0.25 0.29 0.25 0.21 0.19 0.23 0.26 0.27 0.28
0.60 0.61 0.65 0.67 0.64 0.64 0.73 0.75 0.73 0.72 0.72 0.68 0.67 0.64 0.63 0.62 0.58 0.51 0.43 0.40 0.40 0.40 0.43 0.48 0.48 0.40 0.35 0.35 0.36 0.34 0.27 0.24 0.25 0.22 0.24 0.27 0.26 0.23 0.21 0.20 0.21 0.23 0.27
0.67 0.64 0.68 0.75 0.80 0.79 0.78 0.77 0.76 0.77 0.73 0.71 0.71 0.68 0.67 0.64 0.58 0.55 0.53 0.50 0.49 0.47 0.49 0.54 0.56 0.49 0.42 0.38 0.38 0.38 0.35 0.31 0.28 0.24 0.24 0.27 0.27 0.26 0.25 0.23 0.20 0.18 0.19
0.76 0.72 0.70 0.71 0.76 0.77 0.76 0.63 0.54 0.55 0.49 0.46 0.50 0.54 0.55 0.52 0.51 0.50 0.49 0.48 0.50 0.55 0.56 0.55 0.58 0.60 0.53 0.45 0.40 0.41 0.41 0.35 0.28 0.24 0.24 0.25 0.25 0.24 0.24 0.25 0.23 0.21 0.21
0.76 0.74 0.72 0.71 0.73 0.74 0.73 0.67 0.60 0.53 0.50 0.46 0.44 0.42 0.43 0.44 0.48 0.48 0.48 0.50 0.51 0.55 0.55 0.55 0.57 0.60 0.59 0.54 0.46 0.41 0.41 0.36 0.29 0.26 0.25 0.26 0.24 0.23 0.23 0.24 0.22 0.22 0.21
0.68 0.68 0.67 0.67 0.67 0.68 0.69 0.69 0.70 0.65 0.61 0.58 0.53 0.47 0.40 0.38 0.42 0.46 0.49 0.52 0.50 0.47 0.48 0.53 0.57 0.56 0.56 0.53 0.48 0.46 0.42 0.37 0.31 0.28 0.26 0.25 0.24 0.22 0.23 0.22 0.21 0.20 0.20
0.67 0.67 0.66 0.64 0.62 0.60 0.63 0.69 0.71 0.69 0.67 0.66 0.63 0.55 0.48 0.43 0.42 0.47 0.49 0.48 0.43 0.39 0.41 0.50 0.53 0.52 0.50 0.46 0.43 0.43 0.38 0.33 0.29 0.26 0.25 0.23 0.22 0.20 0.22 0.23 0.20 0.20 0.18
0.71 0.70 0.75 0.72 0.63 0.60 0.62 0.69 0.71 0.69 0.69 0.71 0.69 0.59 0.49 0.46 0.44 0.46 0.45 0.42 0.38 0.33 0.35 0.44 0.50 0.49 0.46 0.42 0.39 0.35 0.33 0.31 0.28 0.23 0.21 0.19 0.18 0.17 0.18 0.20 0.20 0.18 0.17
0.78 0.71 0.70 0.67 0.63 0.62 0.66 0.71 0.73 0.70 0.67 0.67 0.66 0.55 0.46 0.40 0.37 0.36 0.37 0.37 0.33 0.29 0.32 0.41 0.45 0.45 0.42 0.38 0.34 0.29 0.27 0.28 0.24 0.19 0.17 0.16 0.13 0.14 0.14 0.15 0.16 0.15 0.13
0.85 0.78 0.68 0.63 0.62 0.68 0.71 0.72 0.74 0.68 0.61 0.61 0.62 0.53 0.44 0.38 0.35 0.32 0.31 0.31 0.29 0.26 0.30 0.36 0.39 0.39 0.35 0.30 0.27 0.26 0.24 0.23 0.21 0.17 0.15 0.13 0.11 0.11 0.11 0.12 0.15 0.15 0.13
0.83 0.81 0.74 0.65 0.58 0.62 0.66 0.68 0.66 0.61 0.57 0.54 0.54 0.47 0.41 0.38 0.33 0.27 0.27 0.27 0.26 0.26 0.27 0.30 0.30 0.30 0.27 0.23 0.21 0.21 0.21 0.18 0.16 0.13 0.11 0.10 0.08 0.08 0.09 0.10 0.11 0.13 0.13
0.76 0.77 0.75 0.66 0.55 0.53 0.59 0.63 0.62 0.60 0.58 0.54 0.46 0.40 0.37 0.35 0.30 0.25 0.24 0.23 0.24 0.23 0.22 0.23 0.22 0.21 0.21 0.19 0.19 0.18 0.16 0.13 0.10 0.08 0.07 0.07 0.07 0.07 0.07 0.07 0.08 0.11 0.14
0.72 0.71 0.72 0.67 0.56 0.51 0.58 0.64 0.62 0.56 0.51 0.45 0.38 0.33 0.31 0.28 0.26 0.24 0.21 0.19 0.19 0.19 0.17 0.17 0.17 0.16 0.16 0.15 0.16 0.16 0.12 0.09 0.07 0.05 0.05 0.05 0.05 0.06 0.06 0.06 0.07 0.09 0.12
0.72 0.70 0.67 0.62 0.55 0.50 0.52 0.57 0.56 0.50 0.45 0.38 0.29 0.26 0.25 0.24 0.22 0.19 0.17 0.14 0.14 0.14 0.14 0.13 0.13 0.13 0.12 0.14 0.14 0.11 0.08 0.06 0.04 0.04 0.03 0.03 0.04 0.05 0.05 0.05 0.05 0.06 0.07

GEFSGL_prec_meanprecacc_090.txt.gz
Total_Precipitation_Accumulation
0.52 0.53 0.52 0.52 0.52 0.54 0.60 0.61 0.64 0.65 0.67 0.68 0.71 0.74 0.79 0.83 0.88 0.91 0.96 1.05 1.09 1.12 1.17 1.28 1.36 1.47 1.43 1.28 1.24 1.28 1.38 1.47 1.28 1.31 1.27 1.03 0.88 0.76 0.67 0.57 0.41 0.32 0.27
0.47 0.48 0.50 0.48 0.45 0.46 0.48 0.49 0.52 0.55 0.58 0.59 0.62 0.65 0.69 0.75 0.83 0.92 0.98 1.04 1.05 1.06 1.09 1.18 1.22 1.28 1.33 1.27 1.14 1.08 1.21 1.34 1.30 1.31 1.46 1.36 1.06 0.86 0.78 0.66 0.48 0.37 0.36
0.47 0.47 0.44 0.47 0.48 0.45 0.39 0.38 0.38 0.43 0.49 0.48 0.48 0.51 0.56 0.65 0.76 0.83 0.87 0.91 0.99 1.07 1.05 1.04 1.05 1.09 1.24 1.33 1.27 1.19 1.18 1.27 1.35 1.33 1.43 1.49 1.23 0.96 0.90 0.79 0.66 0.64 0.43
0.43 0.42 0.41 0.40 0.40 0.42 0.40 0.37 0.35 0.36 0.41 0.44 0.45 0.49 0.53 0.59 0.65 0.69 0.69 0.69 0.71 0.81 0.85 0.84 0.82 0.83 0.97 1.20 1.26 1.32 1.30 1.23 1.28 1.32 1.42 1.49 1.45 1.20 1.06 0.96 0.90 0.82 0.66
0.45 0.42 0.41 0.40 0.37 0.34 0.32 0.30 0.30 0.30 0.29 0.34 0.38 0.45 0.50 0.52 0.49 0.51 0.54 0.50 0.50 0.49 0.51 0.55 0.58 0.61 0.62 0.73 0.93 1.13 1.24 1.26 1.24 1.26 1.32 1.41 1.38 1.31 1.10 0.98 0.95 0.97 0.92
0.36 0.34 0.37 0.38 0.37 0.36 0.31 0.27 0.26 0.26 0.28 0.32 0.35 0.36 0.38 0.38 0.41 0.41 0.41 0.39 0.36 0.35 0.34 0.34 0.34 0.36 0.39 0.47 0.55 0.72 0.91 1.07 1.24 1.30 1.28 1.30 1.32 1.31 1.24 1.11 1.03 0.97 1.04
0.28 0.30 0.33 0.37 0.40 0.38 0.29 0.26 0.25 0.25 0.28 0.31 0.33 0.34 0.34 0.36 0.33 0.32 0.34 0.31 0.29 0.29 0.30 0.30 0.23 0.21 0.25 0.31 0.36 0.41 0.52 0.63 0.77 1.02 1.18 1.17 1.15 1.17 1.25 1.25 1.19 1.16 1.19
0.31 0.36 0.38 0.38 0.41 0.41 0.35 0.32 0.31 0.31 0.32 0.34 0.35 0.34 0.34 0.34 0.30 0.26 0.25 0.23 0.27 0.30 0.27 0.27 0.24 0.21 0.21 0.26 0.30 0.32 0.30 0.32 0.42 0.54 0.64 0.70 0.79 0.93 1.08 1.22 1.32 1.37 1.46
0.37 0.41 0.42 0.43 0.44 0.44 0.43 0.43 0.44 0.45 0.38 0.34 0.36 0.39 0.39 0.38 0.32 0.27 0.24 0.23 0.27 0.30 0.27 0.26 0.27 0.23 0.21 0.19 0.24 0.30 0.28 0.26 0.29 0.36 0.42 0.51 0.58 0.65 0.73 0.86 0.99 1.18 1.48
0.36 0.38 0.37 0.42 0.48 0.50 0.52 0.54 0.55 0.55 0.48 0.42 0.40 0.42 0.43 0.43 0.36 0.26 0.23 0.26 0.32 0.34 0.31 0.28 0.27 0.26 0.22 0.18 0.21 0.26 0.28 0.26 0.25 0.28 0.32 0.35 0.37 0.40 0.43 0.50 0.59 0.78 1.04
0.38 0.39 0.40 0.44 0.49 0.53 0.61 0.66 0.69 0.66 0.63 0.57 0.52 0.50 0.51 0.46 0.38 0.24 0.23 0.28 0.36 0.42 0.38 0.34 0.31 0.29 0.23 0.21 0.22 0.25 0.25 0.27 0.30 0.31 0.34 0.38 0.37 0.34 0.33 0.34 0.38 0.44 0.57
0.43 0.43 0.43 0.48 0.41 0.42 0.62 0.71 0.77 0.78 0.73 0.67 0.66 0.62 0.59 0.55 0.43 0.32 0.25 0.28 0.35 0.48 0.50 0.46 0.39 0.34 0.29 0.26 0.25 0.24 0.24 0.25 0.28 0.33 0.35 0.38 0.40 0.36 0.32 0.32 0.33 0.37 0.42
0.54 0.56 0.56 0.54 0.55 0.60 0.69 0.75 0.77 0.79 0.78 0.72 0.74 0.73 0.71 0.69 0.60 0.39 0.31 0.31 0.33 0.46 0.52 0.52 0.46 0.36 0.34 0.31 0.32 0.29 0.24 0.23 0.26 0.30 0.33 0.36 0.35 0.33 0.31 0.33 0.36 0.38 0.39
0.63 0.64 0.68 0.72 0.71 0.72 0.82 0.85 0.83 0.82 0.83 0.79 0.79 0.78 0.78 0.78 0.74 0.63 0.50 0.43 0.42 0.41 0.46 0.51 0.50 0.42 0.37 0.37 0.38 0.35 0.28 0.26 0.28 0.27 0.31 0.37 0.38 0.35 0.33 0.31 0.32 0.35 0.38
0.70 0.68 0.72 0.80 0.87 0.88 0.87 0.86 0.83 0.85 0.78 0.76 0.78 0.78 0.79 0.77 0.69 0.63 0.63 0.61 0.57 0.52 0.55 0.62 0.63 0.54 0.45 0.42 0.42 0.41 0.39 0.34 0.30 0.30 0.31 0.38 0.41 0.39 0.36 0.34 0.31 0.29 0.29
0.80 0.75 0.74 0.76 0.82 0.85 0.85 0.73 0.60 0.57 0.50 0.47 0.51 0.56 0.59 0.55 0.53 0.52 0.51 0.52 0.54 0.58 0.60 0.64 0.69 0.70 0.62 0.52 0.47 0.48 0.47 0.41 0.34 0.31 0.33 0.37 0.39 0.37 0.36 0.36 0.34 0.30 0.30
0.80 0.79 0.77 0.76 0.80 0.82 0.82 0.79 0.71 0.61 0.53 0.47 0.45 0.44 0.45 0.46 0.49 0.49 0.50 0.52 0.53 0.57 0.60 0.63 0.68 0.71 0.71 0.66 0.57 0.51 0.50 0.44 0.38 0.35 0.35 0.38 0.38 0.37 0.36 0.35 0.33 0.31 0.30
0.72 0.72 0.72 0.73 0.74 0.76 0.77 0.80 0.83 0.78 0.72 0.65 0.56 0.49 0.42 0.39 0.43 0.47 0.51 0.55 0.54 0.50 0.54 0.61 0.69 0.69 0.71 0.68 0.61 0.57 0.53 0.47 0.42 0.39 0.38 0.39 0.38 0.37 0.37 0.35 0.31 0.28 0.28
0.71 0.70 0.69 0.69 0.69 0.68 0.72 0.79 0.83 0.81 0.80 0.78 0.71 0.59 0.50 0.45 0.44 0.48 0.50 0.52 0.51 0.47 0.49 0.59 0.66 0.68 0.65 0.60 0.55 0.55 0.48 0.43 0.40 0.39 0.39 0.40 0.38 0.36 0.36 0.36 0.33 0.30 0.26
0.75 0.73 0.78 0.76 0.70 0.67 0.71 0.79 0.82 0.82 0.82 0.83 0.81 0.67 0.54 0.51 0.51 0.52 0.50 0.49 0.47 0.45 0.47 0.56 0.64 0.65 0.61 0.56 0.52 0.46 0.43 0.41 0.39 0.38 0.37 0.36 0.35 0.33 0.32 0.33 0.32 0.28 0.25
0.82 0.75 0.73 0.72 0.71 0.69 0.74 0.81 0.86 0.84 0.80 0.79 0.77 0.61 0.52 0.51 0.50 0.48 0.46 0.46 0.44 0.40 0.45 0.55 0.60 0.60 0.57 0.51 0.46 0.41 0.38 0.37 0.37 0.35 0.34 0.33 0.31 0.29 0.29 0.29 0.29 0.26 0.22
0.89 0.83 0.73 0.69 0.68 0.72 0.77 0.81 0.85 0.79 0.72 0.73 0.71 0.57 0.48 0.47 0.47 0.43 0.40 0.40 0.37 0.35 0.40 0.48 0.52 0.54 0.49 0.43 0.39 0.37 0.35 0.33 0.34 0.33 0.32 0.30 0.28 0.26 0.25 0.26 0.27 0.26 0.23
0.86 0.84 0.79 0.71 0.65 0.67 0.72 0.76 0.75 0.69 0.65 0.63 0.62 0.55 0.48 0.48 0.44 0.37 0.36 0.35 0.34 0.35 0.35 0.40 0.42 0.41 0.38 0.34 0.33 0.32 0.32 0.29 0.29 0.30 0.30 0.27 0.26 0.24 0.22 0.22 0.22 0.23 0.22
0.80 0.80 0.79 0.71 0.61 0.60 0.65 0.71 0.69 0.66 0.64 0.60 0.52 0.46 0.45 0.45 0.41 0.34 0.33 0.33 0.33 0.32 0.31 0.32 0.30 0.29 0.29 0.30 0.31 0.31 0.28 0.25 0.24 0.26 0.25 0.23 0.23 0.21 0.18 0.18 0.18 0.19 0.22
0.74 0.75 0.76 0.71 0.61 0.56 0.63 0.70 0.69 0.63 0.57 0.52 0.45 0.41 0.39 0.37 0.36 0.35 0.35 0.34 0.31 0.30 0.26 0.25 0.25 0.24 0.24 0.24 0.26 0.26 0.22 0.20 0.20 0.20 0.20 0.19 0.18 0.17 0.15 0.15 0.15 0.18 0.20
0.74 0.72 0.70 0.66 0.60 0.54 0.58 0.64 0.63 0.57 0.53 0.46 0.38 0.37 0.37 0.35 0.34 0.33 0.34 0.33 0.30 0.27 0.24 0.22 0.21 0.20 0.19 0.21 0.21 0.17 0.14 0.14 0.15 0.16 0.15 0.15 0.14 0.13 0.12 0.12 0.12 0.13 0.14

GEFSGL_prec_meanprecacc_096.txt.gz
Total_Precipitation_Accumulation
0.53 0.53 0.53 0.52 0.52 0.55 0.61 0.62 0.64 0.66 0.68 0.69 0.71 0.75 0.79 0.83 0.88 0.92 0.96 1.05 1.10 1.13 1.19 1.29 1.38 1.50 1.47 1.35 1.36 1.44 1.55 1.63 1.41 1.41 1.38 1.16 1.01 0.89 0.78 0.65 0.47 0.36 0.30
0.47 0.48 0.50 0.48 0.45 0.47 0.48 0.49 0.52 0.55 0.58 0.59 0.62 0.65 0.70 0.76 0.84 0.93 0.99 1.04 1.06 1.06 1.10 1.19 1.24 1.30 1.36 1.32 1.22 1.19 1.34 1.49 1.46 1.45 1.59 1.51 1.20 1.02 0.92 0.76 0.56 0.42 0.38
0.47 0.47 0.44 0.47 0.48 0.45 0.39 0.38 0.39 0.43 0.49 0.48 0.49 0.51 0.57 0.67 0.78 0.84 0.88 0.92 1.00 1.08 1.06 1.05 1.05 1.10 1.26 1.37 1.34 1.29 1.29 1.40 1.49 1.47 1.58 1.62 1.36 1.11 1.07 0.94 0.76 0.70 0.47
0.43 0.42 0.41 0.40 0.40 0.42 0.40 0.37 0.35 0.37 0.41 0.44 0.46 0.50 0.55 0.60 0.67 0.70 0.70 0.70 0.72 0.81 0.85 0.84 0.83 0.84 0.99 1.22 1.31 1.40 1.41 1.35 1.42 1.47 1.58 1.65 1.59 1.34 1.22 1.11 1.02 0.90 0.71
0.45 0.42 0.41 0.40 0.37 0.34 0.33 0.30 0.30 0.30 0.30 0.35 0.40 0.46 0.51 0.53 0.51 0.53 0.57 0.52 0.51 0.50 0.52 0.55 0.58 0.62 0.64 0.75 0.96 1.19 1.33 1.37 1.38 1.45 1.52 1.59 1.56 1.48 1.23 1.12 1.07 1.05 0.98
0.36 0.34 0.37 0.38 0.37 0.36 0.31 0.27 0.26 0.26 0.29 0.33 0.36 0.37 0.39 0.39 0.42 0.44 0.44 0.42 0.39 0.37 0.36 0.36 0.35 0.37 0.41 0.48 0.57 0.77 0.98 1.17 1.37 1.49 1.52 1.52 1.50 1.48 1.39 1.25 1.16 1.06 1.09
0.28 0.31 0.33 0.37 0.40 0.38 0.29 0.26 0.25 0.26 0.28 0.32 0.34 0.35 0.34 0.37 0.34 0.34 0.37 0.35 0.33 0.33 0.33 0.32 0.25 0.22 0.27 0.32 0.37 0.44 0.58 0.72 0.86 1.17 1.40 1.41 1.38 1.36 1.44 1.40 1.32 1.27 1.26
0.31 0.36 0.38 0.38 0.41 0.41 0.35 0.32 0.32 0.32 0.32 0.34 0.35 0.35 0.35 0.34 0.31 0.28 0.28 0.26 0.32 0.35 0.31 0.30 0.27 0.23 0.23 0.28 0.32 0.35 0.33 0.39 0.49 0.62 0.75 0.89 1.03 1.17 1.29 1.40 1.48 1.52 1.58
0.37 0.41 0.43 0.43 0.44 0.44 0.43 0.43 0.44 0.45 0.39 0.35 0.37 0.39 0.39 0.38 0.33 0.29 0.27 0.26 0.30 0.34 0.31 0.30 0.31 0.26 0.23 0.21 0.27 0.33 0.31 0.30 0.37 0.43 0.50 0.63 0.76 0.88 0.98 1.08 1.16 1.32 1.60
0.36 0.38 0.37 0.43 0.48 0.51 0.52 0.55 0.56 0.57 0.50 0.43 0.41 0.44 0.44 0.45 0.38 0.28 0.26 0.29 0.34 0.38 0.36 0.33 0.32 0.30 0.24 0.21 0.24 0.29 0.30 0.28 0.31 0.35 0.39 0.43 0.49 0.55 0.63 0.71 0.76 0.92 1.17
0.38 0.39 0.40 0.44 0.50 0.53 0.62 0.68 0.71 0.68 0.65 0.59 0.54 0.52 0.53 0.48 0.40 0.27 0.26 0.31 0.39 0.46 0.44 0.39 0.36 0.34 0.26 0.23 0.25 0.27 0.28 0.29 0.33 0.37 0.41 0.45 0.46 0.44 0.44 0.50 0.56 0.59 0.69
0.43 0.43 0.43 0.48 0.42 0.42 0.63 0.72 0.78 0.79 0.74 0.68 0.67 0.64 0.61 0.57 0.45 0.33 0.27 0.30 0.38 0.53 0.55 0.50 0.44 0.39 0.33 0.28 0.27 0.26 0.27 0.27 0.30 0.36 0.41 0.45 0.46 0.43 0.39 0.41 0.48 0.53 0.55
0.54 0.56 0.57 0.55 0.56 0.61 0.70 0.76 0.78 0.81 0.80 0.74 0.76 0.75 0.73 0.70 0.61 0.40 0.32 0.32 0.35 0.48 0.55 0.56 0.50 0.40 0.38 0.34 0.33 0.31 0.26 0.26 0.28 0.31 0.36 0.43 0.41 0.38 0.38 0.42 0.46 0.50 0.52
0.63 0.65 0.69 0.73 0.71 0.73 0.83 0.86 0.84 0.84 0.85 0.81 0.81 0.80 0.80 0.79 0.76 0.65 0.51 0.44 0.43 0.42 0.47 0.53 0.53 0.45 0.40 0.39 0.40 0.36 0.29 0.28 0.30 0.29 0.32 0.40 0.45 0.42 0.41 0.40 0.40 0.44 0.49
0.70 0.68 0.72 0.80 0.87 0.89 0.88 0.88 0.84 0.86 0.80 0.78 0.80 0.79 0.81 0.79 0.71 0.65 0.65 0.63 0.59 0.54 0.57 0.64 0.66 0.56 0.47 0.44 0.44 0.43 0.40 0.35 0.32 0.31 0.33 0.39 0.46 0.46 0.43 0.44 0.40 0.37 0.38
0.80 0.76 0.75 0.77 0.83 0.87 0.86 0.74 0.62 0.59 0.52 0.48 0.52 0.57 0.60 0.57 0.55 0.54 0.54 0.54 0.57 0.61 0.63 0.67 0.73 0.74 0.65 0.55 0.50 0.51 0.49 0.42 0.35 0.32 0.34 0.38 0.42 0.44 0.43 0.45 0.44 0.39 0.38
0.81 0.79 0.78 0.77 0.81 0.84 0.84 0.81 0.74 0.63 0.54 0.48 0.46 0.45 0.46 0.48 0.51 0.51 0.52 0.54 0.56 0.60 0.63 0.66 0.72 0.75 0.76 0.70 0.60 0.54 0.52 0.46 0.39 0.36 0.36 0.39 0.41 0.44 0.45 0.44 0.42 0.39 0.39
0.72 0.72 0.73 0.74 0.76 0.78 0.80 0.83 0.86 0.80 0.74 0.67 0.57 0.50 0.43 0.41 0.45 0.50 0.53 0.57 0.56 0.54 0.57 0.65 0.72 0.72 0.73 0.72 0.65 0.60 0.56 0.50 0.44 0.41 0.40 0.41 0.41 0.43 0.45 0.44 0.40 0.35 0.35
0.71 0.71 0.70 0.70 0.71 0.70 0.75 0.82 0.86 0.83 0.83 0.80 0.73 0.60 0.51 0.47 0.46 0.51 0.54 0.55 0.55 0.52 0.54 0.63 0.70 0.71 0.68 0.64 0.59 0.58 0.51 0.46 0.43 0.41 0.41 0.42 0.41 0.43 0.45 0.45 0.41 0.37 0.33
0.75 0.74 0.79 0.77 0.72 0.69 0.73 0.81 0.84 0.85 0.85 0.86 0.83 0.69 0.56 0.53 0.54 0.56 0.53 0.52 0.51 0.49 0.50 0.60 0.68 0.70 0.66 0.60 0.55 0.50 0.47 0.45 0.42 0.40 0.40 0.40 0.40 0.42 0.42 0.40 0.40 0.35 0.31
0.82 0.76 0.74 0.73 0.73 0.71 0.76 0.83 0.88 0.87 0.83 0.82 0.79 0.63 0.54 0.54 0.54 0.52 0.50 0.50 0.47 0.44 0.48 0.58 0.63 0.64 0.60 0.54 0.50 0.45 0.41 0.40 0.40 0.39 0.38 0.40 0.41 0.41 0.38 0.35 0.35 0.33 0.29
0.90 0.84 0.74 0.70 0.69 0.74 0.78 0.83 0.87 0.81 0.75 0.76 0.73 0.59 0.50 0.51 0.51 0.48 0.44 0.43 0.41 0.38 0.43 0.50 0.55 0.57 0.52 0.47 0.43 0.40 0.38 0.37 0.39 0.39 0.39 0.39 0.41 0.38 0.34 0.33 0.34 0.34 0.31
0.87 0.85 0.79 0.72 0.66 0.68 0.73 0.77 0.76 0.71 0.67 0.65 0.64 0.56 0.51 0.52 0.48 0.42 0.40 0.38 0.38 0.37 0.38 0.42 0.45 0.45 0.43 0.39 0.38 0.37 0.36 0.34 0.35 0.38 0.38 0.36 0.37 0.34 0.32 0.31 0.30 0.32 0.32
0.80 0.81 0.79 0.72 0.62 0.61 0.67 0.72 0.71 0.68 0.67 0.62 0.54 0.49 0.48 0.49 0.45 0.39 0.37 0.37 0.37 0.35 0.33 0.34 0.33 0.33 0.35 0.36 0.36 0.35 0.34 0.32 0.33 0.35 0.34 0.33 0.34 0.32 0.31 0.30 0.27 0.30 0.34
0.75 0.76 0.77 0.72 0.62 0.57 0.65 0.72 0.70 0.65 0.59 0.54 0.47 0.44 0.43 0.42 0.42 0.40 0.39 0.38 0.35 0.34 0.29 0.27 0.28 0.27 0.27 0.28 0.30 0.31 0.28 0.27 0.28 0.28 0.28 0.29 0.31 0.30 0.28 0.28 0.27 0.29 0.32
0.74 0.73 0.71 0.67 0.61 0.55 0.59 0.65 0.65 0.59 0.55 0.48 0.40 0.39 0.40 0.40 0.40 0.40 0.39 0.36 0.35 0.32 0.27 0.26 0.25 0.23 0.23 0.25 0.25 0.22 0.20 0.19 0.21 0.23 0.23 0.25 0.27 0.27 0.24 0.22 0.23 0.24 0.25

GEFSGL_prec_meanprecacc_102.txt.gz
Total_Precipitation_Accumulation
0.53 0.53 0.53 0.52 0.52 0.55 0.61 0.62 0.64 0.66 0.68 0.69 0.72 0.75 0.79 0.84 0.89 0.92 0.97 1.06 1.10 1.13 1.19 1.30 1.39 1.52 1.51 1.41 1.45 1.53 1.65 1.71 1.50 1.49 1.45 1.22 1.07 0.94 0.83 0.70 0.52 0.41 0.34
0.47 0.48 0.50 0.48 0.45 0.47 0.48 0.49 0.52 0.56 0.58 0.59 0.62 0.65 0.70 0.76 0.84 0.93 0.99 1.04 1.06 1.06 1.10 1.19 1.24 1.30 1.38 1.35 1.29 1.29 1.45 1.58 1.55 1.55 1.69 1.59 1.28 1.09 0.99 0.82 0.62 0.47 0.42
0.47 0.47 0.44 0.47 0.48 0.45 0.39 0.38 0.39 0.43 0.49 0.48 0.49 0.52 0.57 0.67 0.78 0.85 0.88 0.93 1.01 1.08 1.06 1.05 1.06 1.10 1.27 1.38 1.38 1.36 1.40 1.50 1.58 1.56 1.68 1.72 1.45 1.20 1.15 1.00 0.81 0.75 0.51
0.43 0.42 0.41 0.40 0.40 0.42 0.40 0.37 0.35 0.37 0.41 0.44 0.46 0.51 0.55 0.61 0.67 0.71 0.71 0.70 0.73 0.82 0.86 0.85 0.83 0.84 0.99 1.23 1.32 1.43 1.47 1.44 1.52 1.57 1.67 1.75 1.72 1.46 1.34 1.18 1.07 0.95 0.76
0.45 0.42 0.41 0.40 0.37 0.34 0.33 0.30 0.30 0.30 0.30 0.35 0.40 0.46 0.51 0.53 0.51 0.53 0.57 0.52 0.52 0.50 0.52 0.56 0.58 0.63 0.64 0.76 0.96 1.20 1.36 1.42 1.45 1.54 1.63 1.70 1.69 1.64 1.37 1.22 1.14 1.12 1.03
0.36 0.34 0.37 0.38 0.37 0.36 0.31 0.27 0.26 0.26 0.29 0.33 0.36 0.37 0.39 0.39 0.42 0.44 0.44 0.42 0.39 0.37 0.36 0.36 0.35 0.37 0.41 0.49 0.58 0.77 1.00 1.20 1.41 1.54 1.60 1.63 1.62 1.62 1.56 1.41 1.28 1.14 1.15
0.28 0.31 0.33 0.37 0.40 0.38 0.29 0.26 0.25 0.26 0.28 0.32 0.34 0.35 0.34 0.37 0.34 0.34 0.37 0.35 0.34 0.33 0.33 0.33 0.25 0.23 0.27 0.33 0.38 0.45 0.59 0.74 0.89 1.21 1.45 1.48 1.49 1.49 1.61 1.60 1.48 1.39 1.33
0.31 0.36 0.38 0.38 0.41 0.41 0.35 0.32 0.32 0.32 0.32 0.34 0.36 0.35 0.35 0.34 0.31 0.28 0.28 0.27 0.32 0.35 0.32 0.31 0.27 0.24 0.24 0.29 0.34 0.36 0.34 0.41 0.51 0.64 0.79 0.95 1.11 1.31 1.46 1.60 1.67 1.70 1.72
0.37 0.41 0.43 0.43 0.44 0.44 0.43 0.43 0.45 0.46 0.39 0.35 0.37 0.40 0.39 0.38 0.33 0.29 0.28 0.27 0.30 0.35 0.32 0.31 0.31 0.27 0.24 0.22 0.28 0.34 0.33 0.32 0.39 0.47 0.54 0.69 0.84 1.01 1.19 1.32 1.40 1.52 1.78
0.37 0.38 0.38 0.43 0.48 0.51 0.52 0.55 0.56 0.57 0.50 0.44 0.42 0.45 0.45 0.46 0.38 0.28 0.27 0.30 0.35 0.38 0.37 0.34 0.33 0.31 0.26 0.23 0.25 0.30 0.32 0.30 0.33 0.39 0.43 0.48 0.55 0.65 0.81 0.96 1.00 1.10 1.32
0.38 0.39 0.41 0.44 0.50 0.53 0.62 0.68 0.71 0.69 0.65 0.60 0.54 0.53 0.54 0.49 0.41 0.28 0.28 0.33 0.40 0.48 0.46 0.42 0.39 0.36 0.28 0.26 0.27 0.29 0.29 0.32 0.35 0.40 0.45 0.48 0.50 0.51 0.57 0.69 0.81 0.79 0.85
0.43 0.43 0.43 0.48 0.42 0.43 0.63 0.73 0.78 0.80 0.74 0.68 0.68 0.64 0.62 0.58 0.46 0.35 0.29 0.34 0.42 0.57 0.61 0.57 0.50 0.45 0.37 0.31 0.29 0.28 0.29 0.29 0.33 0.39 0.44 0.50 0.51 0.48 0.48 0.56 0.69 0.75 0.73
0.54 0.56 0.57 0.55 0.56 0.61 0.70 0.76 0.79 0.81 0.80 0.74 0.76 0.76 0.73 0.71 0.62 0.42 0.34 0.36 0.39 0.54 0.62 0.62 0.56 0.47 0.42 0.37 0.36 0.34 0.29 0.28 0.31 0.34 0.38 0.46 0.46 0.44 0.46 0.55 0.66 0.73 0.74
0.63 0.65 0.69 0.73 0.71 0.73 0.84 0.87 0.85 0.84 0.86 0.82 0.82 0.81 0.80 0.80 0.77 0.67 0.54 0.48 0.47 0.48 0.53 0.58 0.59 0.54 0.46 0.43 0.42 0.38 0.32 0.31 0.33 0.32 0.34 0.42 0.49 0.48 0.49 0.51 0.58 0.64 0.70
0.70 0.68 0.72 0.81 0.87 0.89 0.89 0.88 0.84 0.87 0.81 0.79 0.80 0.80 0.82 0.80 0.72 0.66 0.67 0.66 0.64 0.60 0.63 0.70 0.72 0.64 0.54 0.48 0.47 0.45 0.42 0.38 0.35 0.34 0.35 0.42 0.49 0.51 0.50 0.53 0.55 0.55 0.54
0.80 0.76 0.75 0.77 0.84 0.87 0.87 0.74 0.62 0.59 0.52 0.48 0.53 0.58 0.61 0.58 0.56 0.55 0.56 0.58 0.61 0.67 0.69 0.73 0.78 0.79 0.69 0.59 0.54 0.54 0.51 0.44 0.37 0.35 0.36 0.40 0.44 0.49 0.50 0.54 0.56 0.54 0.53
0.81 0.79 0.78 0.77 0.81 0.84 0.85 0.81 0.74 0.63 0.55 0.48 0.46 0.45 0.47 0.48 0.52 0.53 0.55 0.58 0.59 0.64 0.67 0.70 0.75 0.79 0.80 0.73 0.64 0.58 0.55 0.48 0.41 0.38 0.38 0.41 0.43 0.47 0.51 0.54 0.54 0.53 0.52
0.72 0.73 0.73 0.74 0.76 0.78 0.80 0.84 0.87 0.81 0.75 0.67 0.57 0.50 0.44 0.42 0.45 0.51 0.56 0.60 0.59 0.56 0.60 0.68 0.75 0.76 0.78 0.76 0.68 0.64 0.59 0.53 0.46 0.43 0.42 0.44 0.44 0.46 0.50 0.52 0.52 0.49 0.49
0.72 0.71 0.70 0.70 0.71 0.70 0.75 0.83 0.86 0.84 0.83 0.80 0.73 0.61 0.53 0.48 0.48 0.53 0.56 0.58 0.57 0.55 0.56 0.67 0.74 0.75 0.72 0.67 0.62 0.61 0.55 0.49 0.46 0.44 0.44 0.44 0.44 0.46 0.50 0.52 0.51 0.51 0.48
0.76 0.74 0.79 0.77 0.72 0.69 0.73 0.82 0.85 0.85 0.85 0.86 0.84 0.70 0.58 0.55 0.56 0.59 0.56 0.55 0.53 0.51 0.53 0.63 0.72 0.74 0.69 0.63 0.59 0.53 0.50 0.47 0.45 0.43 0.42 0.42 0.43 0.45 0.46 0.45 0.46 0.45 0.44
0.83 0.76 0.74 0.73 0.73 0.71 0.76 0.83 0.88 0.87 0.83 0.83 0.80 0.64 0.56 0.56 0.57 0.56 0.54 0.53 0.50 0.46 0.50 0.61 0.67 0.66 0.63 0.57 0.54 0.48 0.44 0.43 0.42 0.41 0.40 0.42 0.44 0.44 0.41 0.39 0.40 0.40 0.38
0.90 0.84 0.74 0.70 0.69 0.74 0.78 0.83 0.87 0.81 0.75 0.76 0.74 0.60 0.52 0.53 0.54 0.51 0.47 0.46 0.43 0.41 0.45 0.53 0.58 0.60 0.55 0.49 0.46 0.44 0.41 0.40 0.40 0.40 0.40 0.41 0.43 0.40 0.36 0.37 0.39 0.40 0.40
0.87 0.85 0.79 0.72 0.66 0.68 0.73 0.78 0.76 0.71 0.68 0.66 0.65 0.57 0.52 0.54 0.51 0.45 0.43 0.40 0.40 0.40 0.41 0.46 0.49 0.49 0.46 0.42 0.42 0.41 0.39 0.37 0.38 0.39 0.39 0.38 0.39 0.37 0.34 0.34 0.34 0.37 0.39
0.80 0.81 0.79 0.72 0.62 0.61 0.67 0.73 0.71 0.68 0.67 0.63 0.55 0.50 0.49 0.51 0.48 0.42 0.40 0.39 0.39 0.37 0.36 0.38 0.37 0.37 0.37 0.38 0.38 0.38 0.37 0.36 0.37 0.38 0.36 0.34 0.36 0.34 0.33 0.32 0.31 0.34 0.39
0.75 0.76 0.77 0.72 0.62 0.57 0.65 0.72 0.70 0.65 0.60 0.55 0.48 0.45 0.45 0.44 0.44 0.42 0.41 0.39 0.38 0.36 0.32 0.31 0.32 0.31 0.30 0.31 0.33 0.35 0.33 0.31 0.32 0.33 0.32 0.31 0.34 0.33 0.31 0.31 0.32 0.34 0.38
0.74 0.73 0.71 0.67 0.61 0.55 0.59 0.65 0.65 0.59 0.55 0.49 0.41 0.40 0.42 0.42 0.43 0.43 0.41 0.39 0.37 0.34 0.30 0.29 0.29 0.27 0.26 0.28 0.29 0.26 0.24 0.23 0.24 0.27 0.27 0.29 0.32 0.32 0.29 0.28 0.29 0.30 0.31